Observation data for Menard on 12/07/2018      Previous  Date  Next       Current Mesonet Observations  Soil Data  Daily Summary Page  Observations in Plain Language
KMD1 070600Z 00006KT 06/06 A3027 RMK A01 T00550055  RH  100%=      5-min Rain = 0
KMD1 070601Z 00006KT 06/06 A3027 RMK A01 T00550055  RH  100%=      5-min Rain = 0
KMD1 070602Z 00006KT 06/06 A3027 RMK A01 T00550055  RH  100%=      5-min Rain = 0
KMD1 070603Z 01006KT 06/06 A3026 RMK A01 T00550055  RH  100%=      5-min Rain = 0
KMD1 070604Z 01007KT 06/06 A3026 RMK A01 T00550055  RH  100%=      5-min Rain = 0
KMD1 070605Z 02007KT 06/06 A3027 RMK A01 T00550055  RH  100%=      5-min Rain = 0
KMD1 070606Z 02008KT 06/06 A3027 RMK A01 T00550055  RH  100%=      5-min Rain = 0
KMD1 070607Z 02007KT 06/06 A3027 RMK A01 T00550055  RH  100%=      5-min Rain = 0
KMD1 070608Z 03007KT 06/06 A3027 RMK A01 T00550055  RH  100%=      5-min Rain = 0
KMD1 070609Z 02007KT 05/05 A3027 RMK A01 T00540054  RH  100%=      5-min Rain = 0
KMD1 070610Z 02006KT 05/05 A3027 RMK A01 T00540054  RH  100%=      5-min Rain = 0
KMD1 070611Z 02006KT 06/06 A3027 RMK A01 T00550055  RH  100%=      5-min Rain = 0
KMD1 070612Z 03005KT 06/06 A3027 RMK A01 T00550055  RH  100%=      5-min Rain = 0
KMD1 070613Z 02006KT 06/06 A3027 RMK A01 T00550055  RH  100%=      5-min Rain = 0
KMD1 070614Z 01006KT 06/06 A3027 RMK A01 T00550055  RH  100%=      5-min Rain = 0
KMD1 070615Z 00005KT 06/06 A3027 RMK A01 T00550055  RH  100%=      5-min Rain = 0
KMD1 070616Z 01006KT 06/06 A3027 RMK A01 T00550055  RH  100%=      5-min Rain = 0
KMD1 070617Z 00005KT 06/06 A3027 RMK A01 T00550055  RH  100%=      5-min Rain = 0
KMD1 070618Z 00005KT 06/06 A3027 RMK A01 T00550055  RH  100%=      5-min Rain = 0
KMD1 070619Z 00006KT 06/06 A3027 RMK A01 T00550055  RH  100%=      5-min Rain = 0
KMD1 070620Z 01005KT 06/06 A3027 RMK A01 T00550055  RH  100%=      5-min Rain = 0
KMD1 070621Z 01008KT 06/06 A3027 RMK A01 T00550055  RH  100%=      5-min Rain = 0
KMD1 070622Z 00008KT 06/06 A3027 RMK A01 T00550055  RH  100%=      5-min Rain = 0
KMD1 070623Z 01006KT 06/06 A3027 RMK A01 T00550055  RH  100%=      5-min Rain = 0
KMD1 070624Z 01006KT 06/06 A3027 RMK A01 T00550055  RH  100%=      5-min Rain = 0
KMD1 070625Z 01005KT 06/06 A3027 RMK A01 T00550055  RH  100%=      5-min Rain = 0
KMD1 070626Z 01006KT 06/06 A3027 RMK A01 T00550055  RH  100%=      5-min Rain = 0
KMD1 070627Z 35006KT 06/06 A3027 RMK A01 T00550055  RH  100%=      5-min Rain = 0
KMD1 070628Z 00007KT 06/06 A3027 RMK A01 T00550055  RH  100%=      5-min Rain = 0
KMD1 070629Z 35007KT 06/06 A3027 RMK A01 T00550055  RH  100%=      5-min Rain = 0
KMD1 070630Z 34006KT 05/05 A3027 RMK A01 T00540054  RH  100%=      5-min Rain = 0
KMD1 070631Z 35005KT 05/05 A3027 RMK A01 T00540054  RH  100%=      5-min Rain = 0
KMD1 070632Z 36006KT 05/05 A3027 RMK A01 T00540054  RH  100%=      5-min Rain = 0
KMD1 070633Z 36005KT 05/05 A3027 RMK A01 T00540054  RH  100%=      5-min Rain = 0
KMD1 070634Z 00005KT 05/05 A3027 RMK A01 T00540054  RH  100%=      5-min Rain = 0
KMD1 070635Z 36004KT 05/05 A3027 RMK A01 T00540054  RH  100%=      5-min Rain = 0
KMD1 070636Z 35004KT 05/05 A3027 RMK A01 T00540054  RH  100%=      5-min Rain = 0
KMD1 070637Z 35006KT 05/05 A3027 RMK A01 T00540054  RH  100%=      5-min Rain = 0
KMD1 070638Z 00006KT 05/05 A3027 RMK A01 T00540054  RH  100%=      5-min Rain = 0
KMD1 070639Z 35008KT 05/05 A3027 RMK A01 T00530053  RH  100%=      5-min Rain = 0
KMD1 070640Z 02007KT 05/05 A3027 RMK A01 T00530053  RH  100%=      5-min Rain = 0
KMD1 070641Z 36007KT 05/05 A3027 RMK A01 T00530052  RH  100%=      5-min Rain = 0
KMD1 070642Z 36006KT 05/05 A3027 RMK A01 T00530053  RH  100%=      5-min Rain = 0
KMD1 070643Z 00006KT 05/05 A3027 RMK A01 T00530053  RH  100%=      5-min Rain = 0
KMD1 070644Z 01007KT 05/05 A3027 RMK A01 T00530053  RH  100%=      5-min Rain = 0
KMD1 070645Z 00009KT 05/05 A3027 RMK A01 T00520052  RH  100%=      5-min Rain = 0
KMD1 070646Z 00007KT 05/05 A3027 RMK A01 T00520052  RH  100%=      5-min Rain = 0
KMD1 070647Z 01006KT 05/05 A3027 RMK A01 T00520052  RH  100%=      5-min Rain = 0
KMD1 070648Z 02006KT 05/05 A3027 RMK A01 T00520052  RH  100%=      5-min Rain = 0
KMD1 070649Z 02007KT 05/05 A3027 RMK A01 T00520052  RH  100%=      5-min Rain = 0
KMD1 070650Z 02007KT 05/05 A3027 RMK A01 T00520052  RH  100%=      5-min Rain = 0
KMD1 070651Z 01005KT 05/05 A3027 RMK A01 T00520052  RH  100%=      5-min Rain = 0
KMD1 070652Z 02006KT 05/05 A3027 RMK A01 T00520052  RH  100%=      5-min Rain = 0
KMD1 070653Z 01006KT 05/05 A3027 RMK A01 T00520052  RH  100%=      5-min Rain = 0
KMD1 070654Z 00004KT 05/05 A3027 RMK A01 T00520052  RH  100%=      5-min Rain = 0
KMD1 070655Z 01005KT 05/05 A3027 RMK A01 T00520052  RH  100%=      5-min Rain = 0
KMD1 070656Z 01004KT 05/05 A3027 RMK A01 T00520052  RH  100%=      5-min Rain = 0
KMD1 070657Z 01003KT 05/05 A3027 RMK A01 T00520052  RH  100%=      5-min Rain = 0
KMD1 070658Z 01004KT 05/05 A3027 RMK A01 T00530053  RH  100%=      5-min Rain = 0
KMD1 070659Z 01005KT 05/05 A3027 RMK A01 T00520052  RH  100%=      5-min Rain = 0
KMD1 070700Z 00005KT 05/05 A3027 RMK A01 T00530053  RH  100%=      5-min Rain = 0
KMD1 070701Z 01005KT 05/05 A3027 RMK A01 T00530053  RH  100%=      5-min Rain = 0
KMD1 070702Z 01006KT 05/05 A3027 RMK A01 T00520052  RH  100%=      5-min Rain = 0
KMD1 070703Z 01005KT 05/05 A3027 RMK A01 T00520052  RH  100%=      5-min Rain = 0
KMD1 070704Z 01005KT 05/05 A3027 RMK A01 T00520052  RH  100%=      5-min Rain = 0
KMD1 070705Z 01004KT 05/05 A3027 RMK A01 T00520052  RH  100%=      5-min Rain = 0
KMD1 070706Z 00003KT 05/05 A3027 RMK A01 T00530053  RH  100%=      5-min Rain = 0
KMD1 070707Z 01003KT 05/05 A3027 RMK A01 T00530053  RH  100%=      5-min Rain = 0
KMD1 070708Z 01004KT 05/05 A3027 RMK A01 T00530053  RH  100%=      5-min Rain = 0
KMD1 070709Z 00003KT 05/05 A3027 RMK A01 T00520052  RH  100%=      5-min Rain = 0
KMD1 070710Z 35002KT 05/05 A3027 RMK A01 T00530053  RH  100%=      5-min Rain = 0
KMD1 070711Z 36003KT 05/05 A3027 RMK A01 T00530052  RH  100%=      5-min Rain = 0
KMD1 070712Z 01005KT 05/05 A3027 RMK A01 T00530053  RH  100%=      5-min Rain = 0
KMD1 070713Z 34004KT 05/05 A3027 RMK A01 T00530052  RH  100%=      5-min Rain = 0
KMD1 070714Z 35005KT 05/05 A3027 RMK A01 T00530053  RH  100%=      5-min Rain = 0
KMD1 070715Z 02005KT 05/05 A3027 RMK A01 T00520052  RH  100%=      5-min Rain = 0
KMD1 070716Z 01004KT 05/05 A3027 RMK A01 T00520052  RH  100%=      5-min Rain = 0
KMD1 070717Z 01005KT 05/05 A3027 RMK A01 T00520052  RH  100%=      5-min Rain = 0
KMD1 070718Z 01005KT 05/05 A3027 RMK A01 T00520052  RH  100%=      5-min Rain = 0
KMD1 070719Z 01005KT 05/05 A3027 RMK A01 T00520052  RH  100%=      5-min Rain = 0
KMD1 070720Z 01004KT 05/05 A3027 RMK A01 T00520052  RH  100%=      5-min Rain = 0
KMD1 070721Z 02004KT 05/05 A3027 RMK A01 T00530052  RH  100%=      5-min Rain = 0
KMD1 070722Z 01005KT 05/05 A3027 RMK A01 T00530053  RH  100%=      5-min Rain = 0
KMD1 070723Z 00004KT 05/05 A3027 RMK A01 T00530053  RH  100%=      5-min Rain = 0
KMD1 070724Z 01006KT 05/05 A3027 RMK A01 T00530053  RH  100%=      5-min Rain = 0
KMD1 070725Z 01007KT 05/05 A3027 RMK A01 T00530053  RH  100%=      5-min Rain = 0
KMD1 070726Z 01007KT 05/05 A3027 RMK A01 T00530052  RH  100%=      5-min Rain = 0
KMD1 070727Z 01006KT 05/05 A3026 RMK A01 T00520052  RH  100%=      5-min Rain = 0
KMD1 070728Z 01007KT 05/05 A3026 RMK A01 T00530053  RH  100%=      5-min Rain = 0
KMD1 070729Z 02006KT 05/05 A3026 RMK A01 T00520052  RH  100%=      5-min Rain = 0
KMD1 070730Z 02006KT 05/05 A3026 RMK A01 T00520052  RH  100%=      5-min Rain = 0
KMD1 070731Z 02005KT 05/05 A3026 RMK A01 T00520052  RH  100%=      5-min Rain = 0
KMD1 070732Z 02005KT 05/05 A3026 RMK A01 T00530052  RH  100%=      5-min Rain = 0
KMD1 070733Z 03005KT 05/05 A3026 RMK A01 T00520052  RH  100%=      5-min Rain = 0
KMD1 070734Z 03007KT 05/05 A3026 RMK A01 T00530053  RH  100%=      5-min Rain = 0
KMD1 070735Z 04007KT 05/05 A3026 RMK A01 T00520052  RH  100%=      5-min Rain = 0
KMD1 070736Z 04007KT 05/05 A3026 RMK A01 T00520052  RH  100%=      5-min Rain = 0
KMD1 070737Z 04007KT 05/05 A3026 RMK A01 T00520052  RH  100%=      5-min Rain = 0
KMD1 070738Z 04007KT 05/05 A3026 RMK A01 T00520052  RH  100%=      5-min Rain = 0
KMD1 070739Z 04006KT 05/05 A3026 RMK A01 T00520052  RH  100%=      5-min Rain = 0
KMD1 070740Z 04007KT 05/05 A3025 RMK A01 T00510051  RH  100%=      5-min Rain = 0
KMD1 070741Z 04005KT 05/05 A3025 RMK A01 T00520052  RH  100%=      5-min Rain = 0
KMD1 070742Z 04005KT 05/05 A3025 RMK A01 T00520052  RH  100%=      5-min Rain = 0
KMD1 070743Z 04004KT 05/05 A3025 RMK A01 T00520052  RH  100%=      5-min Rain = 0
KMD1 070744Z 04005KT 05/05 A3025 RMK A01 T00520052  RH  100%=      5-min Rain = 0
KMD1 070745Z 05004KT 05/05 A3025 RMK A01 T00520052  RH  100%=      5-min Rain = 0
KMD1 070746Z 04005KT 05/05 A3025 RMK A01 T00520052  RH  100%=      5-min Rain = 0
KMD1 070747Z 04006KT 05/05 A3025 RMK A01 T00520052  RH  100%=      5-min Rain = 0
KMD1 070748Z 03006KT 05/05 A3025 RMK A01 T00520052  RH  100%=      5-min Rain = 0
KMD1 070749Z 04005KT 05/05 A3025 RMK A01 T00520052  RH  100%=      5-min Rain = 0
KMD1 070750Z 04005KT 05/05 A3025 RMK A01 T00520052  RH  100%=      5-min Rain = 0
KMD1 070751Z 04005KT 05/05 A3025 RMK A01 T00520051  RH  100%=      5-min Rain = 0
KMD1 070752Z 04004KT 05/05 A3025 RMK A01 T00520052  RH  100%=      5-min Rain = 0
KMD1 070753Z 04004KT 05/05 A3025 RMK A01 T00520052  RH  100%=      5-min Rain = 0
KMD1 070754Z 03004KT 05/05 A3025 RMK A01 T00520052  RH  100%=      5-min Rain = 0
KMD1 070755Z 03005KT 05/05 A3025 RMK A01 T00520052  RH  100%=      5-min Rain = 0
KMD1 070756Z 03004KT 05/05 A3026 RMK A01 T00520052  RH  100%=      5-min Rain = 0
KMD1 070757Z 03005KT 05/05 A3026 RMK A01 T00520052  RH  100%=      5-min Rain = 0
KMD1 070758Z 03005KT 05/05 A3026 RMK A01 T00520052  RH  100%=      5-min Rain = 0
KMD1 070759Z 02004KT 05/05 A3026 RMK A01 T00520052  RH  100%=      5-min Rain = 0
KMD1 070800Z 02005KT 05/05 A3026 RMK A01 T00520052  RH  100%=      5-min Rain = 0
KMD1 070801Z 02006KT 05/05 A3026 RMK A01 T00520051  RH  100%=      5-min Rain = 0
KMD1 070802Z 02006KT 05/05 A3026 RMK A01 T00520052  RH  100%=      5-min Rain = 0
KMD1 070803Z 03007KT 05/05 A3026 RMK A01 T00520052  RH  100%=      5-min Rain = 0
KMD1 070804Z 03006KT 05/05 A3026 RMK A01 T00520052  RH  100%=      5-min Rain = 0
KMD1 070805Z 03006KT 05/05 A3026 RMK A01 T00520052  RH  100%=      5-min Rain = 0
KMD1 070806Z 03006KT 05/05 A3026 RMK A01 T00520052  RH  100%=      5-min Rain = 0
KMD1 070807Z 02005KT 05/05 A3026 RMK A01 T00520052  RH  100%=      5-min Rain = 0
KMD1 070808Z 04004KT 05/05 A3026 RMK A01 T00520052  RH  100%=      5-min Rain = 0
KMD1 070809Z 03007KT 05/05 A3026 RMK A01 T00520052  RH  100%=      5-min Rain = 0
KMD1 070810Z 03007KT 05/05 A3026 RMK A01 T00520052  RH  100%=      5-min Rain = 0
KMD1 070811Z 02006KT 05/05 A3026 RMK A01 T00520052  RH  100%=      5-min Rain = 0
KMD1 070812Z 03005KT 05/05 A3026 RMK A01 T00520052  RH  100%=      5-min Rain = 0
KMD1 070813Z 02004KT 05/05 A3026 RMK A01 T00510051  RH  100%=      5-min Rain = 0
KMD1 070814Z 02004KT 05/05 A3026 RMK A01 T00520052  RH  100%=      5-min Rain = 0
KMD1 070815Z 02004KT 05/05 A3026 RMK A01 T00520052  RH  100%=      5-min Rain = 0
KMD1 070816Z 02003KT 05/05 A3026 RMK A01 T00520052  RH  100%=      5-min Rain = 0
KMD1 070817Z 02005KT 05/05 A3026 RMK A01 T00520052  RH  100%=      5-min Rain = 0
KMD1 070818Z 02005KT 05/05 A3026 RMK A01 T00520052  RH  100%=      5-min Rain = 0
KMD1 070819Z 02004KT 05/05 A3026 RMK A01 T00520052  RH  100%=      5-min Rain = 0
KMD1 070820Z 03004KT 05/05 A3026 RMK A01 T00520052  RH  100%=      5-min Rain = 0
KMD1 070821Z 02004KT 05/05 A3026 RMK A01 T00520052  RH  100%=      5-min Rain = 0
KMD1 070822Z 04004KT 05/05 A3026 RMK A01 T00520052  RH  100%=      5-min Rain = 0
KMD1 070823Z 03005KT 05/05 A3026 RMK A01 T00520052  RH  100%=      5-min Rain = 0
KMD1 070824Z 04004KT 05/05 A3025 RMK A01 T00520052  RH  100%=      5-min Rain = 0.01
KMD1 070825Z 04004KT 05/05 A3025 RMK A01 T00520052  RH  100%=      5-min Rain = 0
KMD1 070826Z 03003KT 05/05 A3025 RMK A01 T00520052  RH  100%=      5-min Rain = 0
KMD1 070827Z 03005KT 05/05 A3025 RMK A01 T00520052  RH  100%=      5-min Rain = 0
KMD1 070828Z 02004KT 05/05 A3025 RMK A01 T00520052  RH  100%=      5-min Rain = 0
KMD1 070829Z 02005KT 05/05 A3025 RMK A01 T00520052  RH  100%=      5-min Rain = 0
KMD1 070830Z 02005KT 05/05 A3026 RMK A01 T00520052  RH  100%=      5-min Rain = 0
KMD1 070831Z 03005KT 05/05 A3026 RMK A01 T00520052  RH  100%=      5-min Rain = 0
KMD1 070832Z 02005KT 05/05 A3026 RMK A01 T00520052  RH  100%=      5-min Rain = 0
KMD1 070833Z 01004KT 05/05 A3026 RMK A01 T00520052  RH  100%=      5-min Rain = 0
KMD1 070834Z 01004KT 05/05 A3026 RMK A01 T00520052  RH  100%=      5-min Rain = 0
KMD1 070835Z 01004KT 05/05 A3026 RMK A01 T00520052  RH  100%=      5-min Rain = 0
KMD1 070836Z 01005KT 05/05 A3026 RMK A01 T00530053  RH  100%=      5-min Rain = 0
KMD1 070837Z 00004KT 05/05 A3026 RMK A01 T00520052  RH  100%=      5-min Rain = 0
KMD1 070838Z 01005KT 05/05 A3026 RMK A01 T00520052  RH  100%=      5-min Rain = 0
KMD1 070839Z 00004KT 05/05 A3026 RMK A01 T00520052  RH  100%=      5-min Rain = 0
KMD1 070840Z 36004KT 05/05 A3026 RMK A01 T00520052  RH  100%=      5-min Rain = 0
KMD1 070841Z 35003KT 05/05 A3026 RMK A01 T00520052  RH  100%=      5-min Rain = 0
KMD1 070842Z 34005KT 05/05 A3026 RMK A01 T00520052  RH  100%=      5-min Rain = 0
KMD1 070843Z 34004KT 05/05 A3026 RMK A01 T00510051  RH  100%=      5-min Rain = 0
KMD1 070844Z 34004KT 05/05 A3026 RMK A01 T00510051  RH  100%=      5-min Rain = 0
KMD1 070845Z 35005KT 05/05 A3026 RMK A01 T00510051  RH  100%=      5-min Rain = 0
KMD1 070846Z 35005KT 05/05 A3026 RMK A01 T00510051  RH  100%=      5-min Rain = 0
KMD1 070847Z 35006KT 05/05 A3026 RMK A01 T00510051  RH  100%=      5-min Rain = 0
KMD1 070848Z 35006KT 05/05 A3026 RMK A01 T00510051  RH  100%=      5-min Rain = 0
KMD1 070849Z 35005KT 05/05 A3026 RMK A01 T00510051  RH  100%=      5-min Rain = 0
KMD1 070850Z 36005KT 05/05 A3026 RMK A01 T00510051  RH  100%=      5-min Rain = 0
KMD1 070851Z 00006KT 05/05 A3026 RMK A01 T00510051  RH  100%=      5-min Rain = 0
KMD1 070852Z 00005KT 05/05 A3026 RMK A01 T00510051  RH  100%=      5-min Rain = 0
KMD1 070853Z 36005KT 05/05 A3026 RMK A01 T00510051  RH  100%=      5-min Rain = 0
KMD1 070854Z 36005KT 05/05 A3026 RMK A01 T00510051  RH  100%=      5-min Rain = 0
KMD1 070855Z 35005KT 05/05 A3026 RMK A01 T00510051  RH  100%=      5-min Rain = 0
KMD1 070856Z 34005KT 05/05 A3026 RMK A01 T00510051  RH  100%=      5-min Rain = 0
KMD1 070857Z 35005KT 05/05 A3026 RMK A01 T00510051  RH  100%=      5-min Rain = 0
KMD1 070858Z 00003KT 05/05 A3026 RMK A01 T00510051  RH  100%=      5-min Rain = 0
KMD1 070859Z 34003KT 05/05 A3026 RMK A01 T00510051  RH  100%=      5-min Rain = 0
KMD1 070900Z 34003KT 05/05 A3026 RMK A01 T00510051  RH  100%=      5-min Rain = 0
KMD1 070901Z 35003KT 05/05 A3026 RMK A01 T00510051  RH  100%=      5-min Rain = 0
KMD1 070902Z 35004KT 05/05 A3026 RMK A01 T00510051  RH  100%=      5-min Rain = 0
KMD1 070903Z 35005KT 05/05 A3026 RMK A01 T00510051  RH  100%=      5-min Rain = 0
KMD1 070904Z 36007KT 05/05 A3026 RMK A01 T00510051  RH  100%=      5-min Rain = 0
KMD1 070905Z 00006KT 05/05 A3026 RMK A01 T00510051  RH  100%=      5-min Rain = 0
KMD1 070906Z 35005KT 05/05 A3026 RMK A01 T00510051  RH  100%=      5-min Rain = 0
KMD1 070907Z 01004KT 05/05 A3026 RMK A01 T00510051  RH  100%=      5-min Rain = 0
KMD1 070908Z 01004KT 05/05 A3026 RMK A01 T00500050  RH  100%=      5-min Rain = 0
KMD1 070909Z 00004KT 05/05 A3026 RMK A01 T00510051  RH  100%=      5-min Rain = 0
KMD1 070910Z 00004KT 05/05 A3027 RMK A01 T00510051  RH  100%=      5-min Rain = 0
KMD1 070911Z 36003KT 05/05 A3027 RMK A01 T00510051  RH  100%=      5-min Rain = 0
KMD1 070912Z 36004KT 05/05 A3027 RMK A01 T00510051  RH  100%=      5-min Rain = 0
KMD1 070913Z 35003KT 05/05 A3027 RMK A01 T00510051  RH  100%=      5-min Rain = 0
KMD1 070914Z 35005KT 05/05 A3027 RMK A01 T00510051  RH  100%=      5-min Rain = 0
KMD1 070915Z 35008KT 05/05 A3027 RMK A01 T00510051  RH  100%=      5-min Rain = 0
KMD1 070916Z 36006KT 05/05 A3027 RMK A01 T00500050  RH  100%=      5-min Rain = 0
KMD1 070917Z 00007KT 05/05 A3027 RMK A01 T00500050  RH  100%=      5-min Rain = 0
KMD1 070918Z 00006KT 05/05 A3027 RMK A01 T00500050  RH  100%=      5-min Rain = 0
KMD1 070919Z 01007KT 05/05 A3026 RMK A01 T00500050  RH  100%=      5-min Rain = 0
KMD1 070920Z 00008KT 05/05 A3026 RMK A01 T00500050  RH  100%=      5-min Rain = 0
KMD1 070921Z 00007KT 05/05 A3026 RMK A01 T00500050  RH  100%=      5-min Rain = 0
KMD1 070922Z 36007KT 05/05 A3026 RMK A01 T00500050  RH  100%=      5-min Rain = 0
KMD1 070923Z 00006KT 05/05 A3026 RMK A01 T00500050  RH  100%=      5-min Rain = 0
KMD1 070924Z 01006KT 05/05 A3026 RMK A01 T00500050  RH  100%=      5-min Rain = 0
KMD1 070925Z 01007KT 05/05 A3026 RMK A01 T00500050  RH  100%=      5-min Rain = 0
KMD1 070926Z 01006KT 05/05 A3026 RMK A01 T00500050  RH  100%=      5-min Rain = 0
KMD1 070927Z 00006KT 05/05 A3026 RMK A01 T00500050  RH  100%=      5-min Rain = 0
KMD1 070928Z 00006KT 05/05 A3026 RMK A01 T00500050  RH  100%=      5-min Rain = 0
KMD1 070929Z 00006KT 05/05 A3026 RMK A01 T00500050  RH  100%=      5-min Rain = 0
KMD1 070930Z 01005KT 05/05 A3026 RMK A01 T00500050  RH  100%=      5-min Rain = 0
KMD1 070931Z 36006KT 05/05 A3026 RMK A01 T00500050  RH  100%=      5-min Rain = 0
KMD1 070932Z 01005KT 05/05 A3026 RMK A01 T00500050  RH  100%=      5-min Rain = 0
KMD1 070933Z 01005KT 05/05 A3026 RMK A01 T00500050  RH  100%=      5-min Rain = 0
KMD1 070934Z 01006KT 05/05 A3026 RMK A01 T00500050  RH  100%=      5-min Rain = 0
KMD1 070935Z 01006KT 05/05 A3026 RMK A01 T00500050  RH  100%=      5-min Rain = 0
KMD1 070936Z 02008KT 05/05 A3026 RMK A01 T00500050  RH  100%=      5-min Rain = 0
KMD1 070937Z 01008KT 05/05 A3026 RMK A01 T00490049  RH  100%=      5-min Rain = 0
KMD1 070938Z 01008KT 05/05 A3025 RMK A01 T00480048  RH  100%=      5-min Rain = 0
KMD1 070939Z 01009KT 05/05 A3025 RMK A01 T00480048  RH  100%=      5-min Rain = 0
KMD1 070940Z 01008KT 05/05 A3025 RMK A01 T00480048  RH  100%=      5-min Rain = 0
KMD1 070941Z 00007KT 05/05 A3025 RMK A01 T00480048  RH  100%=      5-min Rain = 0
KMD1 070942Z 01007KT 05/05 A3026 RMK A01 T00480048  RH  100%=      5-min Rain = 0
KMD1 070943Z 01007KT 05/05 A3026 RMK A01 T00480048  RH  100%=      5-min Rain = 0
KMD1 070944Z 01006KT 05/05 A3026 RMK A01 T00480048  RH  100%=      5-min Rain = 0
KMD1 070945Z 02007KT 05/05 A3026 RMK A01 T00480048  RH  100%=      5-min Rain = 0
KMD1 070946Z 01005KT 05/05 A3026 RMK A01 T00480048  RH  100%=      5-min Rain = 0
KMD1 070947Z 01007KT 05/05 A3026 RMK A01 T00480048  RH  100%=      5-min Rain = 0
KMD1 070948Z 01005KT 05/05 A3026 RMK A01 T00480048  RH  100%=      5-min Rain = 0
KMD1 070949Z 01006KT 05/05 A3026 RMK A01 T00480048  RH  100%=      5-min Rain = 0
KMD1 070950Z 01006KT 05/05 A3026 RMK A01 T00480048  RH  100%=      5-min Rain = 0
KMD1 070951Z 02006KT 05/05 A3026 RMK A01 T00480048  RH  100%=      5-min Rain = 0
KMD1 070952Z 02006KT 05/05 A3026 RMK A01 T00480048  RH  100%=      5-min Rain = 0
KMD1 070953Z 02006KT 05/05 A3026 RMK A01 T00480048  RH  100%=      5-min Rain = 0
KMD1 070954Z 02005KT 05/05 A3026 RMK A01 T00480048  RH  100%=      5-min Rain = 0
KMD1 070955Z 01005KT 05/05 A3026 RMK A01 T00490048  RH  100%=      5-min Rain = 0
KMD1 070956Z 01006KT 05/05 A3026 RMK A01 T00490049  RH  100%=      5-min Rain = 0
KMD1 070957Z 02005KT 05/05 A3025 RMK A01 T00480048  RH  100%=      5-min Rain = 0
KMD1 070958Z 02005KT 05/05 A3025 RMK A01 T00480048  RH  100%=      5-min Rain = 0
KMD1 070959Z 01006KT 05/05 A3026 RMK A01 T00480048  RH  100%=      5-min Rain = 0
KMD1 071000Z 00006KT 05/05 A3026 RMK A01 T00490048  RH  100%=      5-min Rain = 0
KMD1 071001Z 35006KT 05/05 A3026 RMK A01 T00480048  RH  100%=      5-min Rain = 0
KMD1 071002Z 00006KT 05/05 A3026 RMK A01 T00480048  RH  100%=      5-min Rain = 0
KMD1 071003Z 01007KT 05/05 A3026 RMK A01 T00480048  RH  100%=      5-min Rain = 0
KMD1 071004Z 01005KT 05/05 A3026 RMK A01 T00480048  RH  100%=      5-min Rain = 0
KMD1 071005Z 35005KT 05/05 A3027 RMK A01 T00480048  RH  100%=      5-min Rain = 0
KMD1 071006Z 36006KT 05/05 A3027 RMK A01 T00480048  RH  100%=      5-min Rain = 0
KMD1 071007Z 35006KT 05/05 A3027 RMK A01 T00480048  RH  100%=      5-min Rain = 0
KMD1 071008Z 34005KT 05/05 A3027 RMK A01 T00480048  RH  100%=      5-min Rain = 0
KMD1 071009Z 34005KT 05/05 A3027 RMK A01 T00480048  RH  100%=      5-min Rain = 0
KMD1 071010Z 34004KT 05/05 A3027 RMK A01 T00480048  RH  100%=      5-min Rain = 0
KMD1 071011Z 35006KT 05/05 A3027 RMK A01 T00480048  RH  100%=      5-min Rain = 0
KMD1 071012Z 00007KT 05/05 A3026 RMK A01 T00480048  RH  100%=      5-min Rain = 0
KMD1 071013Z 36008KT 05/05 A3026 RMK A01 T00480048  RH  100%=      5-min Rain = 0
KMD1 071014Z 01007KT 05/05 A3026 RMK A01 T00480048  RH  100%=      5-min Rain = 0
KMD1 071015Z 00007KT 05/05 A3026 RMK A01 T00480048  RH  100%=      5-min Rain = 0
KMD1 071016Z 00006KT 05/05 A3026 RMK A01 T00480048  RH  100%=      5-min Rain = 0
KMD1 071017Z 01004KT 05/05 A3026 RMK A01 T00480048  RH  100%=      5-min Rain = 0
KMD1 071018Z 00005KT 05/05 A3026 RMK A01 T00480048  RH  100%=      5-min Rain = 0
KMD1 071019Z 00004KT 05/05 A3026 RMK A01 T00480048  RH  100%=      5-min Rain = 0
KMD1 071020Z 01004KT 05/05 A3026 RMK A01 T00480048  RH  100%=      5-min Rain = 0
KMD1 071021Z 01005KT 05/05 A3026 RMK A01 T00480048  RH  100%=      5-min Rain = 0
KMD1 071022Z 01005KT 05/05 A3026 RMK A01 T00480048  RH  100%=      5-min Rain = 0
KMD1 071023Z 36005KT 05/05 A3026 RMK A01 T00480047  RH  100%=      5-min Rain = 0
KMD1 071024Z 01005KT 05/05 A3026 RMK A01 T00470047  RH  100%=      5-min Rain = 0
KMD1 071025Z 00003KT 05/05 A3026 RMK A01 T00480048  RH  100%=      5-min Rain = 0
KMD1 071026Z 36004KT 05/05 A3026 RMK A01 T00480047  RH  100%=      5-min Rain = 0
KMD1 071027Z 01006KT 05/05 A3027 RMK A01 T00480048  RH  100%=      5-min Rain = 0
KMD1 071028Z 00006KT 05/05 A3027 RMK A01 T00470047  RH  100%=      5-min Rain = 0
KMD1 071029Z 00005KT 05/05 A3027 RMK A01 T00470047  RH  100%=      5-min Rain = 0
KMD1 071030Z 00005KT 05/05 A3027 RMK A01 T00470047  RH  100%=      5-min Rain = 0
KMD1 071031Z 01006KT 05/05 A3027 RMK A01 T00470047  RH  100%=      5-min Rain = 0
KMD1 071032Z 01006KT 05/05 A3027 RMK A01 T00470047  RH  100%=      5-min Rain = 0
KMD1 071033Z 01005KT 05/05 A3026 RMK A01 T00470047  RH  100%=      5-min Rain = 0
KMD1 071034Z 01005KT 05/05 A3027 RMK A01 T00480048  RH  100%=      5-min Rain = 0
KMD1 071035Z 01005KT 05/05 A3027 RMK A01 T00470047  RH  100%=      5-min Rain = 0
KMD1 071036Z 02005KT 05/05 A3027 RMK A01 T00480047  RH  100%=      5-min Rain = 0
KMD1 071037Z 02004KT 05/05 A3027 RMK A01 T00480048  RH  100%=      5-min Rain = 0
KMD1 071038Z 01004KT 05/05 A3027 RMK A01 T00470047  RH  100%=      5-min Rain = 0
KMD1 071039Z 02003KT 05/05 A3027 RMK A01 T00470047  RH  100%=      5-min Rain = 0
KMD1 071040Z 00004KT 05/05 A3027 RMK A01 T00470047  RH  100%=      5-min Rain = 0
KMD1 071041Z 36004KT 05/05 A3027 RMK A01 T00480048  RH  100%=      5-min Rain = 0
KMD1 071042Z 34005KT 05/05 A3027 RMK A01 T00480048  RH  100%=      5-min Rain = 0
KMD1 071043Z 35005KT 05/05 A3027 RMK A01 T00480048  RH  100%=      5-min Rain = 0
KMD1 071044Z 01005KT 05/05 A3027 RMK A01 T00470047  RH  100%=      5-min Rain = 0
KMD1 071045Z 35004KT 05/05 A3026 RMK A01 T00470047  RH  100%=      5-min Rain = 0
KMD1 071046Z 35005KT 05/05 A3026 RMK A01 T00470047  RH  100%=      5-min Rain = 0
KMD1 071047Z 36005KT 05/05 A3026 RMK A01 T00470047  RH  100%=      5-min Rain = 0
KMD1 071048Z 35006KT 05/05 A3026 RMK A01 T00470047  RH  100%=      5-min Rain = 0
KMD1 071049Z 36006KT 05/05 A3026 RMK A01 T00470047  RH  100%=      5-min Rain = 0
KMD1 071050Z 35005KT 05/05 A3026 RMK A01 T00480048  RH  100%=      5-min Rain = 0
KMD1 071051Z 00005KT 05/05 A3026 RMK A01 T00470047  RH  100%=      5-min Rain = 0
KMD1 071052Z 00005KT 05/05 A3026 RMK A01 T00470047  RH  100%=      5-min Rain = 0
KMD1 071053Z 01006KT 05/05 A3026 RMK A01 T00480048  RH  100%=      5-min Rain = 0
KMD1 071054Z 00006KT 05/05 A3026 RMK A01 T00480048  RH  100%=      5-min Rain = 0
KMD1 071055Z 35006KT 05/05 A3026 RMK A01 T00480048  RH  100%=      5-min Rain = 0
KMD1 071056Z 34005KT 05/05 A3026 RMK A01 T00480048  RH  100%=      5-min Rain = 0
KMD1 071057Z 35006KT 05/05 A3026 RMK A01 T00480048  RH  100%=      5-min Rain = 0
KMD1 071058Z 36006KT 05/05 A3026 RMK A01 T00480048  RH  100%=      5-min Rain = 0
KMD1 071059Z 36006KT 05/05 A3026 RMK A01 T00480048  RH  100%=      5-min Rain = 0
KMD1 071100Z 00005KT 05/05 A3026 RMK A01 T00480048  RH  100%=      5-min Rain = 0
KMD1 071101Z 01005KT 05/05 A3026 RMK A01 T00480048  RH  100%=      5-min Rain = 0
KMD1 071102Z 00006KT 05/05 A3026 RMK A01 T00480048  RH  100%=      5-min Rain = 0
KMD1 071103Z 01006KT 05/05 A3027 RMK A01 T00480048  RH  100%=      5-min Rain = 0
KMD1 071104Z 00005KT 05/05 A3027 RMK A01 T00480048  RH  100%=      5-min Rain = 0
KMD1 071105Z 35004KT 05/05 A3027 RMK A01 T00480048  RH  100%=      5-min Rain = 0
KMD1 071106Z 34005KT 05/05 A3027 RMK A01 T00480048  RH  100%=      5-min Rain = 0
KMD1 071107Z 00007KT 05/05 A3027 RMK A01 T00490049  RH  100%=      5-min Rain = 0
KMD1 071108Z 36006KT 05/05 A3027 RMK A01 T00480048  RH  100%=      5-min Rain = 0
KMD1 071109Z 00005KT 05/05 A3027 RMK A01 T00480048  RH  100%=      5-min Rain = 0
KMD1 071110Z 00005KT 05/05 A3026 RMK A01 T00480048  RH  100%=      5-min Rain = 0
KMD1 071111Z 01006KT 05/05 A3026 RMK A01 T00480048  RH  100%=      5-min Rain = 0
KMD1 071112Z 01006KT 05/05 A3026 RMK A01 T00480048  RH  100%=      5-min Rain = 0
KMD1 071113Z 36006KT 05/05 A3026 RMK A01 T00480048  RH  100%=      5-min Rain = 0
KMD1 071114Z 36006KT 05/05 A3026 RMK A01 T00480048  RH  100%=      5-min Rain = 0
KMD1 071115Z 36006KT 05/05 A3026 RMK A01 T00480048  RH  100%=      5-min Rain = 0
KMD1 071116Z 01006KT 05/05 A3026 RMK A01 T00480048  RH  100%=      5-min Rain = 0
KMD1 071117Z 35006KT 05/05 A3026 RMK A01 T00480048  RH  100%=      5-min Rain = 0
KMD1 071118Z 35006KT 05/05 A3026 RMK A01 T00480047  RH  100%=      5-min Rain = 0
KMD1 071119Z 35007KT 05/05 A3026 RMK A01 T00470047  RH  100%=      5-min Rain = 0
KMD1 071120Z 35006KT 05/05 A3026 RMK A01 T00480048  RH  100%=      5-min Rain = 0
KMD1 071121Z 35007KT 05/05 A3026 RMK A01 T00470047  RH  100%=      5-min Rain = 0
KMD1 071122Z 36005KT 05/05 A3026 RMK A01 T00470047  RH  100%=      5-min Rain = 0
KMD1 071123Z 36005KT 05/05 A3026 RMK A01 T00480048  RH  100%=      5-min Rain = 0
KMD1 071124Z 36006KT 05/05 A3026 RMK A01 T00480047  RH  100%=      5-min Rain = 0
KMD1 071125Z 36005KT 05/05 A3026 RMK A01 T00480048  RH  100%=      5-min Rain = 0
KMD1 071126Z 36006KT 05/05 A3026 RMK A01 T00470047  RH  100%=      5-min Rain = 0
KMD1 071127Z 36006KT 05/05 A3026 RMK A01 T00480048  RH  100%=      5-min Rain = 0
KMD1 071128Z 34006KT 05/05 A3026 RMK A01 T00480048  RH  100%=      5-min Rain = 0
KMD1 071129Z 34006KT 05/05 A3026 RMK A01 T00480047  RH  100%=      5-min Rain = 0
KMD1 071130Z 35008KT 05/05 A3026 RMK A01 T00470047  RH  100%=      5-min Rain = 0
KMD1 071131Z 00009KT 05/05 A3026 RMK A01 T00470047  RH  100%=      5-min Rain = 0
KMD1 071132Z 36008KT 05/05 A3026 RMK A01 T00470047  RH  100%=      5-min Rain = 0
KMD1 071133Z 00007KT 05/05 A3026 RMK A01 T00470047  RH  100%=      5-min Rain = 0
KMD1 071134Z 36008KT 05/05 A3026 RMK A01 T00470047  RH  100%=      5-min Rain = 0
KMD1 071135Z 36007KT 05/05 A3026 RMK A01 T00470047  RH  100%=      5-min Rain = 0
KMD1 071136Z 00007KT 05/05 A3026 RMK A01 T00470046  RH  100%=      5-min Rain = 0
KMD1 071137Z 01006KT 05/05 A3026 RMK A01 T00470046  RH  100%=      5-min Rain = 0
KMD1 071138Z 01008KT 05/05 A3026 RMK A01 T00470046  RH  100%=      5-min Rain = 0
KMD1 071139Z 01008KT 05/05 A3027 RMK A01 T00470046  RH  100%=      5-min Rain = 0
KMD1 071140Z 00007KT 05/05 A3027 RMK A01 T00470047  RH  100%=      5-min Rain = 0
KMD1 071141Z 36005KT 05/05 A3027 RMK A01 T00470047  RH  100%=      5-min Rain = 0
KMD1 071142Z 00007KT 05/05 A3027 RMK A01 T00470047  RH  100%=      5-min Rain = 0
KMD1 071143Z 01008KT 05/05 A3027 RMK A01 T00470047  RH  100%=      5-min Rain = 0
KMD1 071144Z 00007KT 05/05 A3027 RMK A01 T00470046  RH  100%=      5-min Rain = 0
KMD1 071145Z 36006KT 05/05 A3027 RMK A01 T00470046  RH  100%=      5-min Rain = 0
KMD1 071146Z 00006KT 05/05 A3027 RMK A01 T00460046  RH  100%=      5-min Rain = 0
KMD1 071147Z 36006KT 05/05 A3027 RMK A01 T00470046  RH  099%=      5-min Rain = 0
KMD1 071148Z 36007KT 05/05 A3027 RMK A01 T00470046  RH  100%=      5-min Rain = 0
KMD1 071149Z 36005KT 05/05 A3027 RMK A01 T00460046  RH  099%=      5-min Rain = 0
KMD1 071150Z 35004KT 05/05 A3027 RMK A01 T00460046  RH  099%=      5-min Rain = 0
KMD1 071151Z 36005KT 05/05 A3027 RMK A01 T00470046  RH  099%=      5-min Rain = 0
KMD1 071152Z 35005KT 05/05 A3027 RMK A01 T00470046  RH  099%=      5-min Rain = 0
KMD1 071153Z 00005KT 05/05 A3027 RMK A01 T00470046  RH  099%=      5-min Rain = 0
KMD1 071154Z 00007KT 05/05 A3027 RMK A01 T00460045  RH  099%=      5-min Rain = 0
KMD1 071155Z 01006KT 05/05 A3027 RMK A01 T00470046  RH  099%=      5-min Rain = 0
KMD1 071156Z 35007KT 05/05 A3027 RMK A01 T00470046  RH  099%=      5-min Rain = 0
KMD1 071157Z 36007KT 05/05 A3027 RMK A01 T00470045  RH  099%=      5-min Rain = 0
KMD1 071158Z 36006KT 05/05 A3027 RMK A01 T00470045  RH  099%=      5-min Rain = 0
KMD1 071159Z 01004KT 05/05 A3028 RMK A01 T00460045  RH  099%=      5-min Rain = 0
KMD1 071200Z 00006KT 05/05 A3028 RMK A01 T00460045  RH  099%=      5-min Rain = 0
KMD1 071201Z 00005KT 05/05 A3027 RMK A01 T00470045  RH  099%=      5-min Rain = 0
KMD1 071202Z 01007KT 05/05 A3027 RMK A01 T00470045  RH  099%=      5-min Rain = 0
KMD1 071203Z 02007KT 05/05 A3027 RMK A01 T00470045  RH  099%=      5-min Rain = 0
KMD1 071204Z 00006KT 05/05 A3027 RMK A01 T00470045  RH  099%=      5-min Rain = 0
KMD1 071205Z 00007KT 05/05 A3027 RMK A01 T00470046  RH  099%=      5-min Rain = 0
KMD1 071206Z 00007KT 05/05 A3028 RMK A01 T00470045  RH  099%=      5-min Rain = 0
KMD1 071207Z 36005KT 05/05 A3027 RMK A01 T00460045  RH  099%=      5-min Rain = 0
KMD1 071208Z 01005KT 05/05 A3027 RMK A01 T00470045  RH  099%=      5-min Rain = 0
KMD1 071209Z 01006KT 05/05 A3027 RMK A01 T00460045  RH  099%=      5-min Rain = 0
KMD1 071210Z 01006KT 05/05 A3027 RMK A01 T00470045  RH  099%=      5-min Rain = 0
KMD1 071211Z 01006KT 05/05 A3027 RMK A01 T00470045  RH  099%=      5-min Rain = 0
KMD1 071212Z 01005KT 05/05 A3027 RMK A01 T00470046  RH  099%=      5-min Rain = 0
KMD1 071213Z 01004KT 05/05 A3027 RMK A01 T00470046  RH  099%=      5-min Rain = 0
KMD1 071214Z 01005KT 05/05 A3027 RMK A01 T00470045  RH  099%=      5-min Rain = 0
KMD1 071215Z 35005KT 05/05 A3027 RMK A01 T00470046  RH  099%=      5-min Rain = 0
KMD1 071216Z 35006KT 05/05 A3027 RMK A01 T00470045  RH  099%=      5-min Rain = 0
KMD1 071217Z 00005KT 05/05 A3027 RMK A01 T00470045  RH  099%=      5-min Rain = 0
KMD1 071218Z 36004KT 05/05 A3027 RMK A01 T00470046  RH  099%=      5-min Rain = 0
KMD1 071219Z 00004KT 05/05 A3027 RMK A01 T00470045  RH  099%=      5-min Rain = 0
KMD1 071220Z 02005KT 05/05 A3027 RMK A01 T00470045  RH  099%=      5-min Rain = 0
KMD1 071221Z 02006KT 05/05 A3027 RMK A01 T00470045  RH  099%=      5-min Rain = 0
KMD1 071222Z 01005KT 05/05 A3027 RMK A01 T00470046  RH  099%=      5-min Rain = 0
KMD1 071223Z 02006KT 05/05 A3027 RMK A01 T00470046  RH  099%=      5-min Rain = 0
KMD1 071224Z 01006KT 05/05 A3028 RMK A01 T00470046  RH  099%=      5-min Rain = 0
KMD1 071225Z 36005KT 05/05 A3028 RMK A01 T00470046  RH  099%=      5-min Rain = 0
KMD1 071226Z 36004KT 05/05 A3028 RMK A01 T00470046  RH  099%=      5-min Rain = 0
KMD1 071227Z 35003KT 05/05 A3028 RMK A01 T00470046  RH  099%=      5-min Rain = 0
KMD1 071228Z 34002KT 05/05 A3028 RMK A01 T00470045  RH  099%=      5-min Rain = 0
KMD1 071229Z 34006KT 05/05 A3028 RMK A01 T00470046  RH  099%=      5-min Rain = 0
KMD1 071230Z 34007KT 05/05 A3028 RMK A01 T00470046  RH  099%=      5-min Rain = 0
KMD1 071231Z 34006KT 05/05 A3028 RMK A01 T00460045  RH  099%=      5-min Rain = 0
KMD1 071232Z 34008KT 05/05 A3028 RMK A01 T00460045  RH  099%=      5-min Rain = 0
KMD1 071233Z 35005KT 05/04 A3028 RMK A01 T00460044  RH  099%=      5-min Rain = 0
KMD1 071234Z 34005KT 05/04 A3028 RMK A01 T00460044  RH  099%=      5-min Rain = 0
KMD1 071235Z 33007KT 05/04 A3028 RMK A01 T00460044  RH  099%=      5-min Rain = 0
KMD1 071236Z 33007KT 05/04 A3028 RMK A01 T00450044  RH  099%=      5-min Rain = 0
KMD1 071237Z 34006KT 05/04 A3028 RMK A01 T00450044  RH  099%=      5-min Rain = 0
KMD1 071238Z 33007KT 05/04 A3029 RMK A01 T00450043  RH  099%=      5-min Rain = 0
KMD1 071239Z 33005KT 05/04 A3029 RMK A01 T00450043  RH  099%=      5-min Rain = 0
KMD1 071240Z 33007KT 05/04 A3029 RMK A01 T00450043  RH  099%=      5-min Rain = 0
KMD1 071241Z 34007KT 05/04 A3029 RMK A01 T00450043  RH  099%=      5-min Rain = 0
KMD1 071242Z 34008KT 04/04 A3029 RMK A01 T00440043  RH  099%=      5-min Rain = 0
KMD1 071243Z 34007KT 04/04 A3029 RMK A01 T00440043  RH  099%=      5-min Rain = 0
KMD1 071244Z 35006KT 04/04 A3029 RMK A01 T00440043  RH  099%=      5-min Rain = 0
KMD1 071245Z 34005KT 04/04 A3029 RMK A01 T00440043  RH  099%=      5-min Rain = 0
KMD1 071246Z 34007KT 05/04 A3029 RMK A01 T00450043  RH  099%=      5-min Rain = 0
KMD1 071247Z 34008KT 04/04 A3029 RMK A01 T00440042  RH  099%=      5-min Rain = 0
KMD1 071248Z 34008KT 04/04 A3029 RMK A01 T00440043  RH  099%=      5-min Rain = 0
KMD1 071249Z 35007KT 04/04 A3029 RMK A01 T00440042  RH  099%=      5-min Rain = 0
KMD1 071250Z 34008KT 04/04 A3029 RMK A01 T00440042  RH  099%=      5-min Rain = 0
KMD1 071251Z 35008KT 04/04 A3028 RMK A01 T00440042  RH  099%=      5-min Rain = 0
KMD1 071252Z 35008KT 04/04 A3028 RMK A01 T00440042  RH  099%=      5-min Rain = 0
KMD1 071253Z 36007KT 04/04 A3028 RMK A01 T00440042  RH  099%=      5-min Rain = 0
KMD1 071254Z 34007KT 04/04 A3028 RMK A01 T00440042  RH  099%=      5-min Rain = 0
KMD1 071255Z 34008KT 04/04 A3028 RMK A01 T00440042  RH  099%=      5-min Rain = 0
KMD1 071256Z 35007KT 04/04 A3028 RMK A01 T00440042  RH  099%=      5-min Rain = 0.01
KMD1 071257Z 34006KT 04/04 A3028 RMK A01 T00440042  RH  099%=      5-min Rain = 0
KMD1 071258Z 35007KT 04/04 A3028 RMK A01 T00440042  RH  099%=      5-min Rain = 0
KMD1 071259Z 36007KT 04/04 A3028 RMK A01 T00440042  RH  099%=      5-min Rain = 0
KMD1 071300Z 35007KT 04/04 A3028 RMK A01 T00440042  RH  099%=      5-min Rain = 0
KMD1 071301Z 35007KT 04/04 A3028 RMK A01 T00440042  RH  099%=      5-min Rain = 0
KMD1 071302Z 36005KT 04/04 A3028 RMK A01 T00430042  RH  099%=      5-min Rain = 0
KMD1 071303Z 35006KT 04/04 A3028 RMK A01 T00430042  RH  099%=      5-min Rain = 0
KMD1 071304Z 36006KT 04/04 A3028 RMK A01 T00430042  RH  099%=      5-min Rain = 0
KMD1 071305Z 36004KT 04/04 A3028 RMK A01 T00440042  RH  099%=      5-min Rain = 0
KMD1 071306Z 36005KT 04/04 A3028 RMK A01 T00430042  RH  099%=      5-min Rain = 0
KMD1 071307Z 35005KT 04/04 A3028 RMK A01 T00430042  RH  099%=      5-min Rain = 0
KMD1 071308Z 36007KT 04/04 A3029 RMK A01 T00430042  RH  099%=      5-min Rain = 0
KMD1 071309Z 35007KT 04/04 A3028 RMK A01 T00430042  RH  099%=      5-min Rain = 0
KMD1 071310Z 35006KT 04/04 A3029 RMK A01 T00430041  RH  099%=      5-min Rain = 0
KMD1 071311Z 35007KT 04/04 A3029 RMK A01 T00430042  RH  099%=      5-min Rain = 0
KMD1 071312Z 36008KT 04/04 A3029 RMK A01 T00430042  RH  099%=      5-min Rain = 0
KMD1 071313Z 35006KT 04/04 A3029 RMK A01 T00430042  RH  099%=      5-min Rain = 0
KMD1 071314Z 35006KT 04/04 A3029 RMK A01 T00430041  RH  099%=      5-min Rain = 0.01
KMD1 071315Z 34007KT 04/04 A3029 RMK A01 T00430042  RH  099%=      5-min Rain = 0
KMD1 071316Z 35007KT 04/04 A3029 RMK A01 T00430042  RH  099%=      5-min Rain = 0
KMD1 071317Z 34007KT 04/04 A3029 RMK A01 T00430041  RH  099%=      5-min Rain = 0
KMD1 071318Z 33005KT 04/04 A303 RMK A01 T00430042  RH  099%=      5-min Rain = 0
KMD1 071319Z 33009KT 04/04 A303 RMK A01 T00430042  RH  099%=      5-min Rain = 0
KMD1 071320Z 33006KT 04/04 A303 RMK A01 T00430041  RH  099%=      5-min Rain = 0.01
KMD1 071321Z 32006KT 04/04 A3031 RMK A01 T00430041  RH  099%=      5-min Rain = 0
KMD1 071322Z 32005KT 04/04 A3031 RMK A01 T00420041  RH  099%=      5-min Rain = 0
KMD1 071323Z 30005KT 04/04 A3031 RMK A01 T00420041  RH  099%=      5-min Rain = 0
KMD1 071324Z 30006KT 04/04 A3031 RMK A01 T00430042  RH  099%=      5-min Rain = 0
KMD1 071325Z 31005KT 04/04 A3031 RMK A01 T00430042  RH  099%=      5-min Rain = 0
KMD1 071326Z 30003KT 04/04 A3031 RMK A01 T00430042  RH  099%=      5-min Rain = 0
KMD1 071327Z 33003KT 04/04 A3031 RMK A01 T00430042  RH  099%=      5-min Rain = 0.01
KMD1 071328Z 34004KT 04/04 A3031 RMK A01 T00430042  RH  099%=      5-min Rain = 0
KMD1 071329Z 33003KT 04/04 A303 RMK A01 T00430042  RH  099%=      5-min Rain = 0
KMD1 071330Z 31003KT 04/04 A3031 RMK A01 T00430042  RH  099%=      5-min Rain = 0.01
KMD1 071331Z 31003KT 04/04 A3031 RMK A01 T00430042  RH  099%=      5-min Rain = 0.01
KMD1 071332Z 31004KT 04/04 A3031 RMK A01 T00430042  RH  099%=      5-min Rain = 0.01
KMD1 071333Z 32004KT 04/04 A303 RMK A01 T00430042  RH  099%=      5-min Rain = 0.01
KMD1 071334Z 33005KT 04/04 A303 RMK A01 T00430042  RH  099%=      5-min Rain = 0
KMD1 071335Z 32005KT 04/04 A303 RMK A01 T00420041  RH  099%=      5-min Rain = 0.01
KMD1 071336Z 33005KT 04/04 A303 RMK A01 T00430041  RH  099%=      5-min Rain = 0
KMD1 071337Z 33005KT 04/04 A303 RMK A01 T00420041  RH  099%=      5-min Rain = 0.01
KMD1 071338Z 33004KT 04/04 A303 RMK A01 T00430041  RH  099%=      5-min Rain = 0
KMD1 071339Z 33004KT 04/04 A303 RMK A01 T00420041  RH  099%=      5-min Rain = 0.01
KMD1 071340Z 33004KT 04/04 A303 RMK A01 T00420041  RH  099%=      5-min Rain = 0
KMD1 071341Z 34004KT 04/04 A303 RMK A01 T00420041  RH  099%=      5-min Rain = 0.01
KMD1 071342Z 34004KT 04/04 A303 RMK A01 T00420041  RH  099%=      5-min Rain = 0
KMD1 071343Z 35004KT 04/04 A303 RMK A01 T00420041  RH  099%=      5-min Rain = 0
KMD1 071344Z 00004KT 04/04 A303 RMK A01 T00420041  RH  099%=      5-min Rain = 0.01
KMD1 071345Z 00003KT 04/04 A303 RMK A01 T00420041  RH  099%=      5-min Rain = 0
KMD1 071346Z 02002KT 04/04 A303 RMK A01 T00420041  RH  099%=      5-min Rain = 0
KMD1 071347Z 03000KT 04/04 A303 RMK A01 T00420041  RH  099%=      5-min Rain = 0
KMD1 071348Z 32002KT 04/04 A303 RMK A01 T00420041  RH  099%=      5-min Rain = 0
KMD1 071349Z 36004KT 04/04 A303 RMK A01 T00420041  RH  099%=      5-min Rain = 0.01
KMD1 071350Z 00004KT 04/04 A303 RMK A01 T00420040  RH  099%=      5-min Rain = 0
KMD1 071351Z 35004KT 04/04 A303 RMK A01 T00410040  RH  099%=      5-min Rain = 0
KMD1 071352Z 35005KT 04/04 A303 RMK A01 T00410040  RH  099%=      5-min Rain = 0
KMD1 071353Z 36006KT 04/04 A303 RMK A01 T00410040  RH  099%=      5-min Rain = 0
KMD1 071354Z 36005KT 04/04 A303 RMK A01 T00410039  RH  099%=      5-min Rain = 0.01
KMD1 071355Z 00006KT 04/04 A303 RMK A01 T00410039  RH  099%=      5-min Rain = 0
KMD1 071356Z 01006KT 04/04 A3029 RMK A01 T00410040  RH  099%=      5-min Rain = 0
KMD1 071357Z 01006KT 04/04 A3029 RMK A01 T00410040  RH  099%=      5-min Rain = 0
KMD1 071358Z 02006KT 04/04 A3029 RMK A01 T00410040  RH  099%=      5-min Rain = 0.01
KMD1 071359Z 01006KT 04/04 A3029 RMK A01 T00420040  RH  099%=      5-min Rain = 0
KMD1 071400Z 02006KT 04/04 A3029 RMK A01 T00420040  RH  099%=      5-min Rain = 0
KMD1 071401Z 02006KT 04/04 A3029 RMK A01 T00420040  RH  099%=      5-min Rain = 0
KMD1 071402Z 02006KT 04/04 A3029 RMK A01 T00420040  RH  099%=      5-min Rain = 0
KMD1 071403Z 02004KT 04/04 A3029 RMK A01 T00420040  RH  099%=      5-min Rain = 0
KMD1 071404Z 03005KT 04/04 A3029 RMK A01 T00410040  RH  099%=      5-min Rain = 0
KMD1 071405Z 03004KT 04/04 A3029 RMK A01 T00420040  RH  099%=      5-min Rain = 0
KMD1 071406Z 04004KT 04/04 A3029 RMK A01 T00420040  RH  099%=      5-min Rain = 0
KMD1 071407Z 05003KT 04/04 A3029 RMK A01 T00420040  RH  099%=      5-min Rain = 0
KMD1 071408Z 06004KT 04/04 A3029 RMK A01 T00420041  RH  099%=      5-min Rain = 0.01
KMD1 071409Z 05003KT 04/04 A3029 RMK A01 T00420041  RH  099%=      5-min Rain = 0
KMD1 071410Z 05003KT 04/04 A303 RMK A01 T00430041  RH  099%=      5-min Rain = 0
KMD1 071411Z 05003KT 04/04 A303 RMK A01 T00420041  RH  099%=      5-min Rain = 0
KMD1 071412Z 05003KT 04/04 A303 RMK A01 T00420041  RH  099%=      5-min Rain = 0
KMD1 071413Z 04004KT 04/04 A3029 RMK A01 T00430041  RH  099%=      5-min Rain = 0
KMD1 071414Z 04003KT 04/04 A3029 RMK A01 T00420041  RH  099%=      5-min Rain = 0
KMD1 071415Z 04004KT 04/04 A3029 RMK A01 T00420041  RH  099%=      5-min Rain = 0
KMD1 071416Z 04005KT 04/04 A3029 RMK A01 T00420041  RH  099%=      5-min Rain = 0
KMD1 071417Z 04005KT 04/04 A3029 RMK A01 T00420041  RH  099%=      5-min Rain = 0
KMD1 071418Z 04005KT 04/04 A3029 RMK A01 T00420041  RH  099%=      5-min Rain = 0
KMD1 071419Z 03005KT 04/04 A3029 RMK A01 T00430041  RH  099%=      5-min Rain = 0
KMD1 071420Z 03005KT 04/04 A3029 RMK A01 T00420041  RH  099%=      5-min Rain = 0
KMD1 071421Z 03004KT 04/04 A3029 RMK A01 T00420040  RH  099%=      5-min Rain = 0
KMD1 071422Z 03005KT 04/04 A3029 RMK A01 T00420041  RH  099%=      5-min Rain = 0
KMD1 071423Z 03006KT 04/04 A3029 RMK A01 T00420040  RH  099%=      5-min Rain = 0
KMD1 071424Z 03006KT 04/04 A3029 RMK A01 T00420041  RH  099%=      5-min Rain = 0
KMD1 071425Z 04006KT 04/04 A3029 RMK A01 T00420041  RH  099%=      5-min Rain = 0.01
KMD1 071426Z 04006KT 04/04 A3029 RMK A01 T00420041  RH  099%=      5-min Rain = 0
KMD1 071427Z 03006KT 04/04 A3029 RMK A01 T00420040  RH  099%=      5-min Rain = 0
KMD1 071428Z 04005KT 04/04 A3029 RMK A01 T00420040  RH  099%=      5-min Rain = 0
KMD1 071429Z 04004KT 04/04 A3029 RMK A01 T00420040  RH  099%=      5-min Rain = 0
KMD1 071430Z 05003KT 04/04 A3029 RMK A01 T00430041  RH  099%=      5-min Rain = 0
KMD1 071431Z 05003KT 04/04 A3029 RMK A01 T00430041  RH  099%=      5-min Rain = 0.01
KMD1 071432Z 06004KT 04/04 A3029 RMK A01 T00430042  RH  099%=      5-min Rain = 0
KMD1 071433Z 04003KT 04/04 A3029 RMK A01 T00440042  RH  099%=      5-min Rain = 0
KMD1 071434Z 03004KT 04/04 A3029 RMK A01 T00430041  RH  099%=      5-min Rain = 0.01
KMD1 071435Z 04003KT 04/04 A3029 RMK A01 T00430041  RH  099%=      5-min Rain = 0
KMD1 071436Z 04003KT 04/04 A3029 RMK A01 T00420041  RH  099%=      5-min Rain = 0
KMD1 071437Z 05003KT 04/04 A3029 RMK A01 T00420040  RH  099%=      5-min Rain = 0
KMD1 071438Z 06003KT 04/04 A3029 RMK A01 T00420040  RH  099%=      5-min Rain = 0.01
KMD1 071439Z 06003KT 04/04 A3029 RMK A01 T00420040  RH  099%=      5-min Rain = 0
KMD1 071440Z 05003KT 04/04 A3029 RMK A01 T00420040  RH  099%=      5-min Rain = 0
KMD1 071441Z 05003KT 04/04 A303 RMK A01 T00420041  RH  099%=      5-min Rain = 0
KMD1 071442Z 04003KT 04/04 A303 RMK A01 T00420041  RH  099%=      5-min Rain = 0
KMD1 071443Z 05002KT 04/04 A3029 RMK A01 T00430041  RH  099%=      5-min Rain = 0
KMD1 071444Z 05003KT 04/04 A3029 RMK A01 T00430041  RH  099%=      5-min Rain = 0
KMD1 071445Z 06004KT 04/04 A303 RMK A01 T00430042  RH  099%=      5-min Rain = 0
KMD1 071446Z 06005KT 04/04 A303 RMK A01 T00430042  RH  099%=      5-min Rain = 0
KMD1 071447Z 06004KT 04/04 A303 RMK A01 T00430042  RH  099%=      5-min Rain = 0.01
KMD1 071448Z 07003KT 04/04 A303 RMK A01 T00430042  RH  099%=      5-min Rain = 0
KMD1 071449Z 06002KT 04/04 A303 RMK A01 T00430042  RH  099%=      5-min Rain = 0
KMD1 071450Z 06001KT 04/04 A303 RMK A01 T00430041  RH  099%=      5-min Rain = 0
KMD1 071451Z 00000KT 04/04 A303 RMK A01 T00420040  RH  099%=      5-min Rain = 0
KMD1 071452Z 04001KT 04/04 A303 RMK A01 T00430041  RH  099%=      5-min Rain = 0
KMD1 071453Z 02002KT 04/04 A303 RMK A01 T00420041  RH  099%=      5-min Rain = 0
KMD1 071454Z 02002KT 04/04 A303 RMK A01 T00430041  RH  099%=      5-min Rain = 0
KMD1 071455Z 03003KT 04/04 A3031 RMK A01 T00430041  RH  099%=      5-min Rain = 0.01
KMD1 071456Z 04003KT 04/04 A3031 RMK A01 T00430041  RH  099%=      5-min Rain = 0
KMD1 071457Z 04002KT 04/04 A3031 RMK A01 T00430041  RH  099%=      5-min Rain = 0
KMD1 071458Z 04002KT 04/04 A3031 RMK A01 T00430041  RH  099%=      5-min Rain = 0.01
KMD1 071459Z 03002KT 04/04 A3031 RMK A01 T00430041  RH  099%=      5-min Rain = 0
KMD1 071500Z 01002KT 04/04 A3031 RMK A01 T00430042  RH  099%=      5-min Rain = 0
KMD1 071501Z 01003KT 04/04 A3031 RMK A01 T00430042  RH  099%=      5-min Rain = 0
KMD1 071502Z 02002KT 04/04 A3031 RMK A01 T00440042  RH  099%=      5-min Rain = 0
KMD1 071503Z 02002KT 04/04 A3031 RMK A01 T00440042  RH  099%=      5-min Rain = 0.01
KMD1 071504Z 02002KT 04/04 A3031 RMK A01 T00430042  RH  099%=      5-min Rain = 0
KMD1 071505Z 02002KT 04/04 A3031 RMK A01 T00430042  RH  099%=      5-min Rain = 0
KMD1 071506Z 02003KT 04/04 A3031 RMK A01 T00430041  RH  099%=      5-min Rain = 0
KMD1 071507Z 02004KT 04/04 A3031 RMK A01 T00430041  RH  099%=      5-min Rain = 0
KMD1 071508Z 02005KT 04/04 A3031 RMK A01 T00430042  RH  099%=      5-min Rain = 0
KMD1 071509Z 01004KT 04/04 A3031 RMK A01 T00430042  RH  099%=      5-min Rain = 0.01
KMD1 071510Z 01004KT 04/04 A3031 RMK A01 T00430042  RH  099%=      5-min Rain = 0
KMD1 071511Z 02003KT 04/04 A3031 RMK A01 T00440042  RH  099%=      5-min Rain = 0
KMD1 071512Z 01003KT 04/04 A3031 RMK A01 T00440042  RH  099%=      5-min Rain = 0
KMD1 071513Z 02003KT 04/04 A3031 RMK A01 T00440042  RH  099%=      5-min Rain = 0
KMD1 071514Z 03003KT 04/04 A3031 RMK A01 T00440043  RH  099%=      5-min Rain = 0
KMD1 071515Z 02004KT 05/04 A3031 RMK A01 T00450043  RH  099%=      5-min Rain = 0
KMD1 071516Z 03004KT 05/04 A3031 RMK A01 T00450043  RH  099%=      5-min Rain = 0
KMD1 071517Z 03004KT 05/04 A3031 RMK A01 T00450043  RH  099%=      5-min Rain = 0.01
KMD1 071518Z 04004KT 05/04 A3031 RMK A01 T00450043  RH  099%=      5-min Rain = 0
KMD1 071519Z 05003KT 05/04 A3031 RMK A01 T00450043  RH  099%=      5-min Rain = 0
KMD1 071520Z 04004KT 05/04 A3031 RMK A01 T00450043  RH  099%=      5-min Rain = 0
KMD1 071521Z 02003KT 04/04 A3031 RMK A01 T00440043  RH  099%=      5-min Rain = 0
KMD1 071522Z 04003KT 04/04 A3031 RMK A01 T00440043  RH  099%=      5-min Rain = 0
KMD1 071523Z 04003KT 05/04 A3031 RMK A01 T00450043  RH  099%=      5-min Rain = 0
KMD1 071524Z 03003KT 04/04 A3031 RMK A01 T00440042  RH  099%=      5-min Rain = 0
KMD1 071525Z 04002KT 05/04 A3032 RMK A01 T00450043  RH  099%=      5-min Rain = 0.01
KMD1 071526Z 04002KT 05/04 A3032 RMK A01 T00450043  RH  099%=      5-min Rain = 0
KMD1 071527Z 05003KT 05/04 A3032 RMK A01 T00450044  RH  099%=      5-min Rain = 0
KMD1 071528Z 06003KT 05/04 A3032 RMK A01 T00450043  RH  099%=      5-min Rain = 0
KMD1 071529Z 04004KT 05/04 A3032 RMK A01 T00450043  RH  099%=      5-min Rain = 0
KMD1 071530Z 04004KT 05/04 A3032 RMK A01 T00450043  RH  099%=      5-min Rain = 0
KMD1 071531Z 05004KT 05/04 A3032 RMK A01 T00450043  RH  099%=      5-min Rain = 0
KMD1 071532Z 03004KT 05/04 A3032 RMK A01 T00450043  RH  099%=      5-min Rain = 0
KMD1 071533Z 05003KT 05/04 A3032 RMK A01 T00450043  RH  099%=      5-min Rain = 0.01
KMD1 071534Z 04004KT 05/04 A3032 RMK A01 T00450044  RH  099%=      5-min Rain = 0
KMD1 071535Z 03004KT 05/04 A3032 RMK A01 T00460044  RH  099%=      5-min Rain = 0
KMD1 071536Z 02004KT 05/04 A3032 RMK A01 T00450043  RH  099%=      5-min Rain = 0
KMD1 071537Z 02005KT 05/04 A3032 RMK A01 T00450043  RH  099%=      5-min Rain = 0
KMD1 071538Z 03005KT 05/04 A3032 RMK A01 T00450043  RH  099%=      5-min Rain = 0
KMD1 071539Z 02004KT 05/04 A3032 RMK A01 T00450043  RH  099%=      5-min Rain = 0
KMD1 071540Z 00005KT 05/04 A3032 RMK A01 T00450043  RH  099%=      5-min Rain = 0.01
KMD1 071541Z 00005KT 05/04 A3032 RMK A01 T00450043  RH  099%=      5-min Rain = 0
KMD1 071542Z 01005KT 05/04 A3032 RMK A01 T00450043  RH  099%=      5-min Rain = 0
KMD1 071543Z 01006KT 05/04 A3032 RMK A01 T00460044  RH  099%=      5-min Rain = 0.01
KMD1 071544Z 01005KT 05/04 A3032 RMK A01 T00460043  RH  099%=      5-min Rain = 0
KMD1 071545Z 01005KT 05/04 A3032 RMK A01 T00460043  RH  099%=      5-min Rain = 0
KMD1 071546Z 01005KT 05/04 A3032 RMK A01 T00460044  RH  099%=      5-min Rain = 0
KMD1 071547Z 01005KT 05/04 A3032 RMK A01 T00460044  RH  099%=      5-min Rain = 0
KMD1 071548Z 01006KT 05/04 A3032 RMK A01 T00460043  RH  098%=      5-min Rain = 0.01
KMD1 071549Z 00005KT 05/04 A3032 RMK A01 T00460043  RH  098%=      5-min Rain = 0
KMD1 071550Z 01006KT 05/04 A3032 RMK A01 T00460043  RH  099%=      5-min Rain = 0
KMD1 071551Z 00006KT 05/04 A3032 RMK A01 T00460044  RH  099%=      5-min Rain = 0
KMD1 071552Z 01006KT 05/04 A3032 RMK A01 T00460043  RH  099%=      5-min Rain = 0
KMD1 071553Z 00006KT 05/04 A3032 RMK A01 T00460044  RH  098%=      5-min Rain = 0
KMD1 071554Z 00005KT 05/04 A3032 RMK A01 T00460044  RH  099%=      5-min Rain = 0
KMD1 071555Z 36005KT 05/04 A3032 RMK A01 T00460043  RH  098%=      5-min Rain = 0
KMD1 071556Z 36007KT 05/04 A3032 RMK A01 T00460043  RH  098%=      5-min Rain = 0
KMD1 071557Z 00006KT 05/04 A3031 RMK A01 T00460043  RH  098%=      5-min Rain = 0.01
KMD1 071558Z 02006KT 05/04 A3032 RMK A01 T00460043  RH  098%=      5-min Rain = 0
KMD1 071559Z 01006KT 05/04 A3032 RMK A01 T00460043  RH  098%=      5-min Rain = 0
KMD1 071600Z 01005KT 05/04 A3032 RMK A01 T00460044  RH  098%=      5-min Rain = 0
KMD1 071601Z 02008KT 05/04 A3032 RMK A01 T00460044  RH  098%=      5-min Rain = 0
KMD1 071602Z 01007KT 05/04 A3032 RMK A01 T00460043  RH  098%=      5-min Rain = 0.01
KMD1 071603Z 00006KT 05/04 A3032 RMK A01 T00450043  RH  098%=      5-min Rain = 0
KMD1 071604Z 01007KT 05/04 A3031 RMK A01 T00450043  RH  098%=      5-min Rain = 0
KMD1 071605Z 01006KT 05/04 A3032 RMK A01 T00450043  RH  098%=      5-min Rain = 0
KMD1 071606Z 01007KT 05/04 A3032 RMK A01 T00450042  RH  098%=      5-min Rain = 0
KMD1 071607Z 01007KT 05/04 A3032 RMK A01 T00450042  RH  098%=      5-min Rain = 0
KMD1 071608Z 01006KT 05/04 A3032 RMK A01 T00450043  RH  098%=      5-min Rain = 0.01
KMD1 071609Z 00005KT 05/04 A3031 RMK A01 T00460043  RH  098%=      5-min Rain = 0
KMD1 071610Z 01006KT 05/04 A3031 RMK A01 T00460044  RH  098%=      5-min Rain = 0
KMD1 071611Z 01008KT 05/04 A3031 RMK A01 T00460043  RH  098%=      5-min Rain = 0
KMD1 071612Z 36007KT 05/04 A3031 RMK A01 T00460044  RH  098%=      5-min Rain = 0
KMD1 071613Z 36007KT 05/04 A3031 RMK A01 T00460044  RH  098%=      5-min Rain = 0
KMD1 071614Z 36008KT 05/04 A3031 RMK A01 T00460043  RH  098%=      5-min Rain = 0
KMD1 071615Z 00006KT 05/04 A3031 RMK A01 T00460043  RH  098%=      5-min Rain = 0.01
KMD1 071616Z 00006KT 05/04 A3031 RMK A01 T00460043  RH  098%=      5-min Rain = 0
KMD1 071617Z 01007KT 05/04 A3031 RMK A01 T00460044  RH  098%=      5-min Rain = 0
KMD1 071618Z 00006KT 05/04 A3031 RMK A01 T00470044  RH  098%=      5-min Rain = 0
KMD1 071619Z 36007KT 05/04 A3031 RMK A01 T00470044  RH  098%=      5-min Rain = 0
KMD1 071620Z 00007KT 05/04 A3031 RMK A01 T00470044  RH  098%=      5-min Rain = 0
KMD1 071621Z 01007KT 05/04 A3031 RMK A01 T00470044  RH  098%=      5-min Rain = 0
KMD1 071622Z 00007KT 05/04 A3031 RMK A01 T00470044  RH  098%=      5-min Rain = 0
KMD1 071623Z 01007KT 05/04 A3031 RMK A01 T00460043  RH  098%=      5-min Rain = 0.01
KMD1 071624Z 00007KT 05/04 A3031 RMK A01 T00460043  RH  098%=      5-min Rain = 0
KMD1 071625Z 00008KT 05/04 A3031 RMK A01 T00460043  RH  098%=      5-min Rain = 0
KMD1 071626Z 00007KT 05/04 A3031 RMK A01 T00460043  RH  098%=      5-min Rain = 0
KMD1 071627Z 36007KT 05/04 A3031 RMK A01 T00460043  RH  098%=      5-min Rain = 0
KMD1 071628Z 35007KT 05/04 A3031 RMK A01 T00470043  RH  098%=      5-min Rain = 0
KMD1 071629Z 36009KT 05/04 A3031 RMK A01 T00460043  RH  098%=      5-min Rain = 0
KMD1 071630Z 36009KT 05/04 A3031 RMK A01 T00470044  RH  098%=      5-min Rain = 0.01
KMD1 071631Z 00008KT 05/04 A3031 RMK A01 T00470043  RH  098%=      5-min Rain = 0
KMD1 071632Z 36009KT 05/04 A303 RMK A01 T00470043  RH  098%=      5-min Rain = 0
KMD1 071633Z 00010KT 05/04 A3031 RMK A01 T00460043  RH  098%=      5-min Rain = 0
KMD1 071634Z 36010KT 05/04 A3031 RMK A01 T00460043  RH  098%=      5-min Rain = 0
KMD1 071635Z 00008KT 05/04 A3031 RMK A01 T00460042  RH  098%=      5-min Rain = 0
KMD1 071636Z 01009KT 05/04 A3031 RMK A01 T00460043  RH  098%=      5-min Rain = 0
KMD1 071637Z 00009KT 05/04 A3031 RMK A01 T00460043  RH  098%=      5-min Rain = 0.01
KMD1 071638Z 00010KT 05/04 A3031 RMK A01 T00460042  RH  098%=      5-min Rain = 0
KMD1 071639Z 00008KT 05/04 A3031 RMK A01 T00460043  RH  098%=      5-min Rain = 0
KMD1 071640Z 01009KT 05/04 A3031 RMK A01 T00460042  RH  097%=      5-min Rain = 0
KMD1 071641Z 00008KT 05/04 A3031 RMK A01 T00470043  RH  098%=      5-min Rain = 0
KMD1 071642Z 35006KT 05/04 A3031 RMK A01 T00470043  RH  097%=      5-min Rain = 0
KMD1 071643Z 34007KT 05/04 A3031 RMK A01 T00460043  RH  097%=      5-min Rain = 0.01
KMD1 071644Z 01005KT 05/04 A3031 RMK A01 T00470043  RH  097%=      5-min Rain = 0
KMD1 071645Z 36009KT 05/04 A3031 RMK A01 T00470043  RH  098%=      5-min Rain = 0
KMD1 071646Z 02006KT 05/04 A3031 RMK A01 T00470043  RH  098%=      5-min Rain = 0
KMD1 071647Z 00007KT 05/04 A3031 RMK A01 T00470043  RH  098%=      5-min Rain = 0
KMD1 071648Z 00006KT 05/04 A3031 RMK A01 T00470043  RH  098%=      5-min Rain = 0.01
KMD1 071649Z 00007KT 05/04 A3031 RMK A01 T00470043  RH  098%=      5-min Rain = 0
KMD1 071650Z 01006KT 05/04 A3031 RMK A01 T00470043  RH  097%=      5-min Rain = 0
KMD1 071651Z 36006KT 05/04 A3031 RMK A01 T00460043  RH  097%=      5-min Rain = 0
KMD1 071652Z 01006KT 05/04 A3031 RMK A01 T00460043  RH  098%=      5-min Rain = 0.01
KMD1 071653Z 01007KT 05/04 A3031 RMK A01 T00460042  RH  098%=      5-min Rain = 0
KMD1 071654Z 01006KT 05/04 A3031 RMK A01 T00460042  RH  097%=      5-min Rain = 0
KMD1 071655Z 02005KT 05/04 A3031 RMK A01 T00450041  RH  097%=      5-min Rain = 0
KMD1 071656Z 01004KT 05/04 A3031 RMK A01 T00450042  RH  097%=      5-min Rain = 0
KMD1 071657Z 00004KT 05/04 A3031 RMK A01 T00460043  RH  098%=      5-min Rain = 0
KMD1 071658Z 02005KT 05/04 A303 RMK A01 T00460043  RH  098%=      5-min Rain = 0.01
KMD1 071659Z 01007KT 05/04 A303 RMK A01 T00470043  RH  098%=      5-min Rain = 0
KMD1 071700Z 01008KT 05/04 A303 RMK A01 T00460043  RH  098%=      5-min Rain = 0
KMD1 071701Z 02008KT 05/04 A3029 RMK A01 T00460042  RH  098%=      5-min Rain = 0
KMD1 071702Z 00007KT 05/04 A303 RMK A01 T00460043  RH  098%=      5-min Rain = 0.01
KMD1 071703Z 01008KT 05/04 A303 RMK A01 T00470043  RH  098%=      5-min Rain = 0
KMD1 071704Z 01008KT 05/04 A3029 RMK A01 T00470044  RH  098%=      5-min Rain = 0
KMD1 071705Z 01009KT 05/04 A3029 RMK A01 T00470043  RH  098%=      5-min Rain = 0
KMD1 071706Z 01007KT 05/04 A3029 RMK A01 T00460042  RH  097%=      5-min Rain = 0
KMD1 071707Z 01007KT 05/04 A3029 RMK A01 T00460043  RH  098%=      5-min Rain = 0.01
KMD1 071708Z 01006KT 05/04 A3029 RMK A01 T00470043  RH  098%=      5-min Rain = 0
KMD1 071709Z 01008KT 05/04 A3029 RMK A01 T00470044  RH  098%=      5-min Rain = 0
KMD1 071710Z 01008KT 05/04 A3029 RMK A01 T00470044  RH  098%=      5-min Rain = 0
KMD1 071711Z 00008KT 05/04 A3029 RMK A01 T00470044  RH  098%=      5-min Rain = 0
KMD1 071712Z 01008KT 05/04 A3028 RMK A01 T00470044  RH  098%=      5-min Rain = 0
KMD1 071713Z 00008KT 05/04 A3028 RMK A01 T00460043  RH  098%=      5-min Rain = 0.01
KMD1 071714Z 00007KT 05/04 A3028 RMK A01 T00470043  RH  098%=      5-min Rain = 0
KMD1 071715Z 01007KT 05/04 A3028 RMK A01 T00470044  RH  098%=      5-min Rain = 0
KMD1 071716Z 02006KT 05/05 A3028 RMK A01 T00480045  RH  098%=      5-min Rain = 0
KMD1 071717Z 02007KT 05/05 A3028 RMK A01 T00480045  RH  098%=      5-min Rain = 0
KMD1 071718Z 02006KT 05/05 A3028 RMK A01 T00480045  RH  098%=      5-min Rain = 0.01
KMD1 071719Z 01006KT 05/05 A3027 RMK A01 T00490046  RH  098%=      5-min Rain = 0
KMD1 071720Z 01006KT 05/05 A3027 RMK A01 T00490046  RH  098%=      5-min Rain = 0
KMD1 071721Z 03005KT 05/05 A3027 RMK A01 T00490046  RH  098%=      5-min Rain = 0
KMD1 071722Z 02007KT 05/05 A3027 RMK A01 T00490046  RH  098%=      5-min Rain = 0
KMD1 071723Z 01008KT 05/05 A3027 RMK A01 T00500047  RH  098%=      5-min Rain = 0
KMD1 071724Z 02007KT 05/05 A3027 RMK A01 T00490045  RH  098%=      5-min Rain = 0
KMD1 071725Z 02007KT 05/04 A3027 RMK A01 T00480044  RH  098%=      5-min Rain = 0.01
KMD1 071726Z 01006KT 05/05 A3027 RMK A01 T00480045  RH  098%=      5-min Rain = 0
KMD1 071727Z 00006KT 05/05 A3027 RMK A01 T00490046  RH  098%=      5-min Rain = 0
KMD1 071728Z 02005KT 05/05 A3027 RMK A01 T00490046  RH  098%=      5-min Rain = 0
KMD1 071729Z 02006KT 05/05 A3026 RMK A01 T00490046  RH  098%=      5-min Rain = 0
KMD1 071730Z 03006KT 05/05 A3026 RMK A01 T00490046  RH  098%=      5-min Rain = 0
KMD1 071731Z 03006KT 05/05 A3026 RMK A01 T00490046  RH  098%=      5-min Rain = 0
KMD1 071732Z 02005KT 05/05 A3026 RMK A01 T00490046  RH  098%=      5-min Rain = 0
KMD1 071733Z 02004KT 05/05 A3026 RMK A01 T00500047  RH  098%=      5-min Rain = 0
KMD1 071734Z 03004KT 05/05 A3027 RMK A01 T00510048  RH  098%=      5-min Rain = 0
KMD1 071735Z 02007KT 05/05 A3027 RMK A01 T00510048  RH  098%=      5-min Rain = 0
KMD1 071736Z 03007KT 05/05 A3027 RMK A01 T00500047  RH  098%=      5-min Rain = 0
KMD1 071737Z 03008KT 05/05 A3027 RMK A01 T00500046  RH  098%=      5-min Rain = 0
KMD1 071738Z 03008KT 05/05 A3027 RMK A01 T00490045  RH  098%=      5-min Rain = 0
KMD1 071739Z 03008KT 05/05 A3027 RMK A01 T00490046  RH  098%=      5-min Rain = 0
KMD1 071740Z 03007KT 05/05 A3026 RMK A01 T00490046  RH  098%=      5-min Rain = 0
KMD1 071741Z 03009KT 05/05 A3026 RMK A01 T00500047  RH  098%=      5-min Rain = 0
KMD1 071742Z 04008KT 05/05 A3026 RMK A01 T00500047  RH  098%=      5-min Rain = 0
KMD1 071743Z 03009KT 05/05 A3026 RMK A01 T00510047  RH  098%=      5-min Rain = 0
KMD1 071744Z 04009KT 05/05 A3026 RMK A01 T00510047  RH  097%=      5-min Rain = 0
KMD1 071745Z 04008KT 05/05 A3026 RMK A01 T00510047  RH  097%=      5-min Rain = 0
KMD1 071746Z 04007KT 05/05 A3026 RMK A01 T00500046  RH  097%=      5-min Rain = 0
KMD1 071747Z 04007KT 05/05 A3026 RMK A01 T00500046  RH  097%=      5-min Rain = 0
KMD1 071748Z 03005KT 05/05 A3026 RMK A01 T00510046  RH  097%=      5-min Rain = 0
KMD1 071749Z 02005KT 05/05 A3026 RMK A01 T00520048  RH  097%=      5-min Rain = 0.01
KMD1 071750Z 01004KT 05/05 A3026 RMK A01 T00520048  RH  097%=      5-min Rain = 0
KMD1 071751Z 02005KT 05/05 A3026 RMK A01 T00520048  RH  097%=      5-min Rain = 0
KMD1 071752Z 01006KT 05/05 A3026 RMK A01 T00520048  RH  097%=      5-min Rain = 0
KMD1 071753Z 03004KT 05/05 A3026 RMK A01 T00520047  RH  097%=      5-min Rain = 0
KMD1 071754Z 02005KT 05/05 A3026 RMK A01 T00520048  RH  097%=      5-min Rain = 0
KMD1 071755Z 02005KT 05/05 A3026 RMK A01 T00520048  RH  097%=      5-min Rain = 0
KMD1 071756Z 01006KT 05/05 A3026 RMK A01 T00520048  RH  097%=      5-min Rain = 0
KMD1 071757Z 02005KT 05/05 A3026 RMK A01 T00520048  RH  098%=      5-min Rain = 0
KMD1 071758Z 01007KT 05/05 A3026 RMK A01 T00520049  RH  098%=      5-min Rain = 0
KMD1 071759Z 01007KT 05/05 A3026 RMK A01 T00510047  RH  097%=      5-min Rain = 0
KMD1 071800Z 02007KT 05/05 A3026 RMK A01 T00510046  RH  097%=      5-min Rain = 0.01
KMD1 071801Z 02007KT 05/05 A3026 RMK A01 T00500046  RH  097%=      5-min Rain = 0
KMD1 071802Z 03006KT 05/05 A3026 RMK A01 T00510047  RH  097%=      5-min Rain = 0
KMD1 071803Z 04006KT 05/05 A3026 RMK A01 T00510047  RH  097%=      5-min Rain = 0
KMD1 071804Z 04005KT 05/05 A3026 RMK A01 T00510047  RH  097%=      5-min Rain = 0
KMD1 071805Z 04005KT 05/05 A3026 RMK A01 T00520048  RH  097%=      5-min Rain = 0
KMD1 071806Z 04006KT 05/05 A3026 RMK A01 T00520048  RH  097%=      5-min Rain = 0
KMD1 071807Z 03006KT 05/05 A3025 RMK A01 T00510047  RH  097%=      5-min Rain = 0
KMD1 071808Z 04007KT 05/05 A3025 RMK A01 T00510047  RH  097%=      5-min Rain = 0
KMD1 071809Z 04006KT 05/05 A3025 RMK A01 T00510047  RH  097%=      5-min Rain = 0
KMD1 071810Z 05007KT 05/05 A3025 RMK A01 T00510048  RH  097%=      5-min Rain = 0
KMD1 071811Z 04007KT 05/05 A3025 RMK A01 T00510048  RH  097%=      5-min Rain = 0.01
KMD1 071812Z 05008KT 05/05 A3025 RMK A01 T00510047  RH  097%=      5-min Rain = 0
KMD1 071813Z 04008KT 05/05 A3025 RMK A01 T00510047  RH  097%=      5-min Rain = 0
KMD1 071814Z 04007KT 05/05 A3025 RMK A01 T00510048  RH  097%=      5-min Rain = 0
KMD1 071815Z 05006KT 05/05 A3025 RMK A01 T00510048  RH  098%=      5-min Rain = 0
KMD1 071816Z 04005KT 05/05 A3025 RMK A01 T00510048  RH  098%=      5-min Rain = 0
KMD1 071817Z 05008KT 05/05 A3025 RMK A01 T00510048  RH  098%=      5-min Rain = 0
KMD1 071818Z 05006KT 05/05 A3025 RMK A01 T00520048  RH  098%=      5-min Rain = 0
KMD1 071819Z 05008KT 05/05 A3024 RMK A01 T00520048  RH  098%=      5-min Rain = 0
KMD1 071820Z 05008KT 05/05 A3024 RMK A01 T00520048  RH  098%=      5-min Rain = 0
KMD1 071821Z 06007KT 05/05 A3024 RMK A01 T00520048  RH  098%=      5-min Rain = 0
KMD1 071822Z 06008KT 05/05 A3024 RMK A01 T00520049  RH  098%=      5-min Rain = 0
KMD1 071823Z 07008KT 05/05 A3024 RMK A01 T00520049  RH  098%=      5-min Rain = 0
KMD1 071824Z 07008KT 05/05 A3024 RMK A01 T00520048  RH  098%=      5-min Rain = 0.01
KMD1 071825Z 07008KT 05/05 A3024 RMK A01 T00510048  RH  098%=      5-min Rain = 0
KMD1 071826Z 06009KT 05/05 A3024 RMK A01 T00510047  RH  098%=      5-min Rain = 0
KMD1 071827Z 07008KT 05/05 A3024 RMK A01 T00500046  RH  097%=      5-min Rain = 0
KMD1 071828Z 06009KT 05/05 A3023 RMK A01 T00500046  RH  098%=      5-min Rain = 0
KMD1 071829Z 05009KT 05/05 A3023 RMK A01 T00490046  RH  097%=      5-min Rain = 0
KMD1 071830Z 06008KT 05/05 A3023 RMK A01 T00490046  RH  098%=      5-min Rain = 0
KMD1 071831Z 07009KT 05/05 A3023 RMK A01 T00500046  RH  098%=      5-min Rain = 0
KMD1 071832Z 06008KT 05/05 A3023 RMK A01 T00490046  RH  098%=      5-min Rain = 0
KMD1 071833Z 07006KT 05/05 A3023 RMK A01 T00490045  RH  097%=      5-min Rain = 0
KMD1 071834Z 07007KT 05/05 A3023 RMK A01 T00480045  RH  098%=      5-min Rain = 0
KMD1 071835Z 06008KT 05/05 A3023 RMK A01 T00490046  RH  098%=      5-min Rain = 0
KMD1 071836Z 05008KT 05/05 A3023 RMK A01 T00490045  RH  098%=      5-min Rain = 0.01
KMD1 071837Z 04007KT 05/05 A3023 RMK A01 T00490045  RH  097%=      5-min Rain = 0
KMD1 071838Z 05005KT 05/05 A3023 RMK A01 T00480045  RH  098%=      5-min Rain = 0
KMD1 071839Z 06005KT 05/05 A3023 RMK A01 T00490045  RH  098%=      5-min Rain = 0
KMD1 071840Z 07007KT 05/05 A3024 RMK A01 T00490045  RH  098%=      5-min Rain = 0
KMD1 071841Z 09004KT 05/04 A3024 RMK A01 T00480043  RH  097%=      5-min Rain = 0
KMD1 071842Z 09002KT 05/04 A3024 RMK A01 T00470043  RH  097%=      5-min Rain = 0
KMD1 071843Z 06005KT 05/04 A3024 RMK A01 T00470043  RH  097%=      5-min Rain = 0
KMD1 071844Z 05006KT 05/04 A3024 RMK A01 T00470043  RH  097%=      5-min Rain = 0
KMD1 071845Z 05006KT 05/04 A3023 RMK A01 T00470043  RH  097%=      5-min Rain = 0
KMD1 071846Z 02008KT 05/04 A3022 RMK A01 T00480044  RH  097%=      5-min Rain = 0
KMD1 071847Z 03010KT 05/05 A3021 RMK A01 T00490045  RH  098%=      5-min Rain = 0
KMD1 071848Z 04010KT 05/05 A3021 RMK A01 T00490045  RH  098%=      5-min Rain = 0.01
KMD1 071849Z 04010KT 05/05 A302 RMK A01 T00490046  RH  098%=      5-min Rain = 0
KMD1 071850Z 05009KT 05/05 A302 RMK A01 T00500047  RH  098%=      5-min Rain = 0
KMD1 071851Z 05009KT 05/05 A302 RMK A01 T00500046  RH  098%=      5-min Rain = 0
KMD1 071852Z 06010KT 05/05 A302 RMK A01 T00500047  RH  098%=      5-min Rain = 0
KMD1 071853Z 05010KT 05/05 A302 RMK A01 T00490046  RH  098%=      5-min Rain = 0
KMD1 071854Z 04009KT 05/05 A302 RMK A01 T00490046  RH  098%=      5-min Rain = 0
KMD1 071855Z 05008KT 05/05 A302 RMK A01 T00490046  RH  098%=      5-min Rain = 0.01
KMD1 071856Z 05008KT 05/05 A302 RMK A01 T00490046  RH  098%=      5-min Rain = 0
KMD1 071857Z 05010KT 05/05 A302 RMK A01 T00490046  RH  098%=      5-min Rain = 0
KMD1 071858Z 04010KT 05/05 A302 RMK A01 T00490045  RH  098%=      5-min Rain = 0
KMD1 071859Z 04009KT 05/05 A302 RMK A01 T00480045  RH  098%=      5-min Rain = 0
KMD1 071900Z 03008KT 05/05 A302 RMK A01 T00480045  RH  098%=      5-min Rain = 0
KMD1 071901Z 03006KT 05/05 A3021 RMK A01 T00490045  RH  098%=      5-min Rain = 0
KMD1 071902Z 03004KT 05/05 A3021 RMK A01 T00480045  RH  098%=      5-min Rain = 0
KMD1 071903Z 02004KT 05/05 A3021 RMK A01 T00490046  RH  098%=      5-min Rain = 0
KMD1 071904Z 01005KT 05/05 A3021 RMK A01 T00490046  RH  098%=      5-min Rain = 0
KMD1 071905Z 01006KT 05/05 A3021 RMK A01 T00490046  RH  098%=      5-min Rain = 0
KMD1 071906Z 01007KT 05/05 A3021 RMK A01 T00490046  RH  098%=      5-min Rain = 0
KMD1 071907Z 01008KT 05/05 A302 RMK A01 T00490046  RH  098%=      5-min Rain = 0
KMD1 071908Z 02007KT 05/05 A302 RMK A01 T00490046  RH  098%=      5-min Rain = 0
KMD1 071909Z 02009KT 05/05 A302 RMK A01 T00490045  RH  098%=      5-min Rain = 0
KMD1 071910Z 02008KT 05/05 A302 RMK A01 T00490045  RH  098%=      5-min Rain = 0
KMD1 071911Z 02006KT 05/05 A302 RMK A01 T00490046  RH  098%=      5-min Rain = 0
KMD1 071912Z 03007KT 05/05 A302 RMK A01 T00500047  RH  098%=      5-min Rain = 0
KMD1 071913Z 03010KT 05/05 A302 RMK A01 T00500046  RH  098%=      5-min Rain = 0.01
KMD1 071914Z 03007KT 05/05 A302 RMK A01 T00490045  RH  098%=      5-min Rain = 0
KMD1 071915Z 03007KT 05/05 A302 RMK A01 T00490045  RH  098%=      5-min Rain = 0
KMD1 071916Z 03006KT 05/05 A302 RMK A01 T00490045  RH  097%=      5-min Rain = 0
KMD1 071917Z 05006KT 05/05 A302 RMK A01 T00490045  RH  097%=      5-min Rain = 0
KMD1 071918Z 05006KT 05/05 A302 RMK A01 T00490046  RH  098%=      5-min Rain = 0
KMD1 071919Z 05006KT 05/05 A302 RMK A01 T00500047  RH  098%=      5-min Rain = 0
KMD1 071920Z 04006KT 05/05 A302 RMK A01 T00500046  RH  098%=      5-min Rain = 0
KMD1 071921Z 06005KT 05/05 A302 RMK A01 T00490046  RH  098%=      5-min Rain = 0
KMD1 071922Z 05007KT 05/05 A302 RMK A01 T00490046  RH  098%=      5-min Rain = 0
KMD1 071923Z 06006KT 05/05 A302 RMK A01 T00500047  RH  098%=      5-min Rain = 0
KMD1 071924Z 06009KT 05/05 A3019 RMK A01 T00500047  RH  098%=      5-min Rain = 0.01
KMD1 071925Z 05007KT 05/05 A3019 RMK A01 T00500046  RH  098%=      5-min Rain = 0
KMD1 071926Z 06006KT 05/05 A3019 RMK A01 T00490046  RH  098%=      5-min Rain = 0
KMD1 071927Z 05005KT 05/05 A3019 RMK A01 T00490046  RH  098%=      5-min Rain = 0
KMD1 071928Z 04006KT 05/05 A3019 RMK A01 T00500047  RH  098%=      5-min Rain = 0
KMD1 071929Z 06007KT 05/05 A3019 RMK A01 T00500047  RH  098%=      5-min Rain = 0
KMD1 071930Z 06006KT 05/05 A3019 RMK A01 T00500047  RH  098%=      5-min Rain = 0
KMD1 071931Z 06005KT 05/05 A3019 RMK A01 T00500047  RH  098%=      5-min Rain = 0
KMD1 071932Z 06005KT 05/05 A3019 RMK A01 T00500047  RH  098%=      5-min Rain = 0.01
KMD1 071933Z 06004KT 05/05 A302 RMK A01 T00500047  RH  098%=      5-min Rain = 0
KMD1 071934Z 07005KT 05/05 A302 RMK A01 T00500047  RH  098%=      5-min Rain = 0
KMD1 071935Z 08005KT 05/05 A3019 RMK A01 T00490046  RH  098%=      5-min Rain = 0
KMD1 071936Z 07004KT 05/05 A3019 RMK A01 T00490046  RH  098%=      5-min Rain = 0
KMD1 071937Z 04005KT 05/05 A3019 RMK A01 T00490047  RH  098%=      5-min Rain = 0
KMD1 071938Z 05006KT 05/05 A3019 RMK A01 T00500047  RH  098%=      5-min Rain = 0
KMD1 071939Z 04006KT 05/05 A3019 RMK A01 T00500047  RH  098%=      5-min Rain = 0
KMD1 071940Z 05007KT 05/05 A3018 RMK A01 T00500048  RH  098%=      5-min Rain = 0.01
KMD1 071941Z 05005KT 05/05 A3018 RMK A01 T00500048  RH  098%=      5-min Rain = 0
KMD1 071942Z 04005KT 05/05 A3018 RMK A01 T00500048  RH  098%=      5-min Rain = 0
KMD1 071943Z 05005KT 05/05 A3018 RMK A01 T00510048  RH  098%=      5-min Rain = 0
KMD1 071944Z 06005KT 05/05 A3018 RMK A01 T00500048  RH  098%=      5-min Rain = 0
KMD1 071945Z 06005KT 05/05 A3018 RMK A01 T00500047  RH  098%=      5-min Rain = 0
KMD1 071946Z 06005KT 05/05 A3018 RMK A01 T00500047  RH  098%=      5-min Rain = 0
KMD1 071947Z 06005KT 05/05 A3018 RMK A01 T00490047  RH  098%=      5-min Rain = 0
KMD1 071948Z 05006KT 05/05 A3018 RMK A01 T00490047  RH  098%=      5-min Rain = 0
KMD1 071949Z 05007KT 05/05 A3018 RMK A01 T00490047  RH  098%=      5-min Rain = 0
KMD1 071950Z 05007KT 05/05 A3017 RMK A01 T00490047  RH  098%=      5-min Rain = 0.01
KMD1 071951Z 04007KT 05/05 A3017 RMK A01 T00490047  RH  098%=      5-min Rain = 0
KMD1 071952Z 04008KT 05/05 A3017 RMK A01 T00500047  RH  098%=      5-min Rain = 0
KMD1 071953Z 03007KT 05/05 A3017 RMK A01 T00500047  RH  098%=      5-min Rain = 0
KMD1 071954Z 05006KT 05/05 A3017 RMK A01 T00500047  RH  098%=      5-min Rain = 0
KMD1 071955Z 04006KT 05/05 A3017 RMK A01 T00500048  RH  098%=      5-min Rain = 0
KMD1 071956Z 04005KT 05/05 A3017 RMK A01 T00510048  RH  098%=      5-min Rain = 0
KMD1 071957Z 05006KT 05/05 A3017 RMK A01 T00510048  RH  098%=      5-min Rain = 0.01
KMD1 071958Z 05007KT 05/05 A3017 RMK A01 T00510048  RH  098%=      5-min Rain = 0
KMD1 071959Z 05008KT 05/05 A3017 RMK A01 T00500048  RH  098%=      5-min Rain = 0
KMD1 072000Z 05009KT 05/05 A3017 RMK A01 T00500048  RH  098%=      5-min Rain = 0
KMD1 072001Z 04009KT 05/05 A3017 RMK A01 T00500047  RH  098%=      5-min Rain = 0
KMD1 072002Z 04008KT 05/05 A3017 RMK A01 T00490046  RH  098%=      5-min Rain = 0.01
KMD1 072003Z 05008KT 05/05 A3017 RMK A01 T00490046  RH  098%=      5-min Rain = 0
KMD1 072004Z 03005KT 05/05 A3017 RMK A01 T00490047  RH  098%=      5-min Rain = 0
KMD1 072005Z 04007KT 05/05 A3017 RMK A01 T00500047  RH  098%=      5-min Rain = 0
KMD1 072006Z 04006KT 05/05 A3017 RMK A01 T00490047  RH  098%=      5-min Rain = 0.01
KMD1 072007Z 05005KT 05/05 A3018 RMK A01 T00490047  RH  098%=      5-min Rain = 0
KMD1 072008Z 03004KT 05/05 A3018 RMK A01 T00490047  RH  098%=      5-min Rain = 0
KMD1 072009Z 03003KT 05/05 A3018 RMK A01 T00490046  RH  098%=      5-min Rain = 0
KMD1 072010Z 04003KT 05/05 A3018 RMK A01 T00490046  RH  098%=      5-min Rain = 0.01
KMD1 072011Z 02003KT 05/05 A3018 RMK A01 T00490046  RH  098%=      5-min Rain = 0
KMD1 072012Z 03004KT 05/05 A3018 RMK A01 T00490046  RH  098%=      5-min Rain = 0
KMD1 072013Z 03005KT 05/05 A3018 RMK A01 T00490047  RH  098%=      5-min Rain = 0.01
KMD1 072014Z 03005KT 05/05 A3018 RMK A01 T00490047  RH  098%=      5-min Rain = 0
KMD1 072015Z 02005KT 05/05 A3018 RMK A01 T00490046  RH  098%=      5-min Rain = 0.01
KMD1 072016Z 02005KT 05/05 A3018 RMK A01 T00490046  RH  098%=      5-min Rain = 0
KMD1 072017Z 02006KT 05/05 A3018 RMK A01 T00490047  RH  098%=      5-min Rain = 0.01
KMD1 072018Z 02006KT 05/05 A3018 RMK A01 T00490047  RH  098%=      5-min Rain = 0
KMD1 072019Z 03006KT 05/05 A3018 RMK A01 T00500047  RH  099%=      5-min Rain = 0
KMD1 072020Z 04006KT 05/05 A3019 RMK A01 T00500047  RH  098%=      5-min Rain = 0.01
KMD1 072021Z 04006KT 05/05 A3019 RMK A01 T00490046  RH  098%=      5-min Rain = 0
KMD1 072022Z 05005KT 05/05 A3019 RMK A01 T00490046  RH  098%=      5-min Rain = 0
KMD1 072023Z 06004KT 05/05 A3019 RMK A01 T00490046  RH  098%=      5-min Rain = 0.01
KMD1 072024Z 08003KT 05/05 A3019 RMK A01 T00480046  RH  098%=      5-min Rain = 0
KMD1 072025Z 08004KT 05/05 A302 RMK A01 T00490046  RH  098%=      5-min Rain = 0.01
KMD1 072026Z 07005KT 05/05 A302 RMK A01 T00490046  RH  098%=      5-min Rain = 0
KMD1 072027Z 06003KT 05/05 A302 RMK A01 T00490046  RH  098%=      5-min Rain = 0.01
KMD1 072028Z 05003KT 05/05 A302 RMK A01 T00480046  RH  098%=      5-min Rain = 0.01
KMD1 072029Z 05003KT 05/05 A302 RMK A01 T00490046  RH  098%=      5-min Rain = 0
KMD1 072030Z 05003KT 05/05 A302 RMK A01 T00480046  RH  098%=      5-min Rain = 0.01
KMD1 072031Z 05003KT 05/05 A302 RMK A01 T00480046  RH  098%=      5-min Rain = 0.01
KMD1 072032Z 06003KT 05/05 A3019 RMK A01 T00480046  RH  098%=      5-min Rain = 0
KMD1 072033Z 06004KT 05/05 A3019 RMK A01 T00480046  RH  098%=      5-min Rain = 0.01
KMD1 072034Z 05005KT 05/05 A3019 RMK A01 T00490047  RH  098%=      5-min Rain = 0
KMD1 072035Z 05005KT 05/05 A3018 RMK A01 T00490046  RH  098%=      5-min Rain = 0.01
KMD1 072036Z 04005KT 05/05 A3018 RMK A01 T00480046  RH  098%=      5-min Rain = 0
KMD1 072037Z 03006KT 05/05 A3018 RMK A01 T00490047  RH  098%=      5-min Rain = 0
KMD1 072038Z 03007KT 05/05 A3018 RMK A01 T00490047  RH  099%=      5-min Rain = 0.01
KMD1 072039Z 02007KT 05/05 A3018 RMK A01 T00500048  RH  099%=      5-min Rain = 0
KMD1 072040Z 01007KT 05/05 A3018 RMK A01 T00500048  RH  099%=      5-min Rain = 0.01
KMD1 072041Z 01007KT 05/05 A3018 RMK A01 T00500048  RH  099%=      5-min Rain = 0
KMD1 072042Z 01007KT 05/05 A3018 RMK A01 T00510049  RH  099%=      5-min Rain = 0
KMD1 072043Z 02005KT 05/05 A3018 RMK A01 T00510049  RH  099%=      5-min Rain = 0.01
KMD1 072044Z 03005KT 05/05 A3018 RMK A01 T00510049  RH  099%=      5-min Rain = 0
KMD1 072045Z 03005KT 05/05 A3018 RMK A01 T00520050  RH  099%=      5-min Rain = 0
KMD1 072046Z 04005KT 05/05 A3018 RMK A01 T00520050  RH  099%=      5-min Rain = 0.01
KMD1 072047Z 03006KT 05/05 A3018 RMK A01 T00520050  RH  099%=      5-min Rain = 0
KMD1 072048Z 03005KT 05/05 A3018 RMK A01 T00510050  RH  099%=      5-min Rain = 0
KMD1 072049Z 02006KT 05/05 A3018 RMK A01 T00510050  RH  099%=      5-min Rain = 0
KMD1 072050Z 01006KT 05/05 A3018 RMK A01 T00510050  RH  099%=      5-min Rain = 0
KMD1 072051Z 02006KT 05/05 A3018 RMK A01 T00510050  RH  099%=      5-min Rain = 0.01
KMD1 072052Z 01006KT 05/05 A3018 RMK A01 T00510050  RH  099%=      5-min Rain = 0
KMD1 072053Z 01006KT 05/05 A3018 RMK A01 T00520050  RH  099%=      5-min Rain = 0
KMD1 072054Z 36004KT 05/05 A3018 RMK A01 T00520050  RH  099%=      5-min Rain = 0
KMD1 072055Z 35007KT 05/05 A3018 RMK A01 T00520050  RH  099%=      5-min Rain = 0
KMD1 072056Z 00006KT 05/05 A3018 RMK A01 T00520050  RH  099%=      5-min Rain = 0.01
KMD1 072057Z 00007KT 05/05 A3018 RMK A01 T00510050  RH  099%=      5-min Rain = 0
KMD1 072058Z 00006KT 05/05 A3018 RMK A01 T00510049  RH  099%=      5-min Rain = 0
KMD1 072059Z 36006KT 05/05 A3018 RMK A01 T00510050  RH  099%=      5-min Rain = 0
KMD1 072100Z 35007KT 05/05 A3018 RMK A01 T00520050  RH  099%=      5-min Rain = 0
KMD1 072101Z 36008KT 05/05 A3017 RMK A01 T00520050  RH  099%=      5-min Rain = 0.01
KMD1 072102Z 35010KT 05/05 A3017 RMK A01 T00510050  RH  099%=      5-min Rain = 0
KMD1 072103Z 36011KT 05/05 A3017 RMK A01 T00510050  RH  099%=      5-min Rain = 0
KMD1 072104Z 36009KT 05/05 A3017 RMK A01 T00510049  RH  099%=      5-min Rain = 0
KMD1 072105Z 36009KT 05/05 A3016 RMK A01 T00510050  RH  099%=      5-min Rain = 0.01
KMD1 072106Z 01007KT 05/05 A3016 RMK A01 T00510049  RH  099%=      5-min Rain = 0
KMD1 072107Z 01007KT 05/05 A3016 RMK A01 T00520050  RH  099%=      5-min Rain = 0
KMD1 072108Z 01007KT 05/05 A3016 RMK A01 T00520050  RH  099%=      5-min Rain = 0.01
KMD1 072109Z 00008KT 05/05 A3016 RMK A01 T00520051  RH  099%=      5-min Rain = 0
KMD1 072110Z 01007KT 05/05 A3016 RMK A01 T00530051  RH  099%=      5-min Rain = 0
KMD1 072111Z 00006KT 05/05 A3017 RMK A01 T00530051  RH  099%=      5-min Rain = 0
KMD1 072112Z 00007KT 05/05 A3017 RMK A01 T00520051  RH  099%=      5-min Rain = 0.01
KMD1 072113Z 36008KT 05/05 A3017 RMK A01 T00530051  RH  099%=      5-min Rain = 0
KMD1 072114Z 01006KT 05/05 A3017 RMK A01 T00520051  RH  099%=      5-min Rain = 0
KMD1 072115Z 01006KT 05/05 A3016 RMK A01 T00530051  RH  099%=      5-min Rain = 0
KMD1 072116Z 01010KT 05/05 A3017 RMK A01 T00530051  RH  099%=      5-min Rain = 0.01
KMD1 072117Z 01011KT 05/05 A3017 RMK A01 T00520051  RH  099%=      5-min Rain = 0
KMD1 072118Z 01008KT 05/05 A3017 RMK A01 T00520050  RH  099%=      5-min Rain = 0
KMD1 072119Z 01008KT 05/05 A3017 RMK A01 T00520050  RH  099%=      5-min Rain = 0
KMD1 072120Z 02007KT 05/05 A3017 RMK A01 T00520050  RH  099%=      5-min Rain = 0.01
KMD1 072121Z 02009KT 05/05 A3017 RMK A01 T00520050  RH  099%=      5-min Rain = 0
KMD1 072122Z 02010KT 05/05 A3017 RMK A01 T00520050  RH  099%=      5-min Rain = 0.01
KMD1 072123Z 02008KT 05/05 A3016 RMK A01 T00520050  RH  099%=      5-min Rain = 0
KMD1 072124Z 02009KT 05/05 A3016 RMK A01 T00520050  RH  099%=      5-min Rain = 0
KMD1 072125Z 02008KT 05/05 A3016 RMK A01 T00520050  RH  099%=      5-min Rain = 0.01
KMD1 072126Z 02009KT 05/05 A3016 RMK A01 T00520050  RH  099%=      5-min Rain = 0
KMD1 072127Z 02008KT 05/05 A3016 RMK A01 T00520050  RH  099%=      5-min Rain = 0.01
KMD1 072128Z 01010KT 05/05 A3016 RMK A01 T00520050  RH  099%=      5-min Rain = 0
KMD1 072129Z 02010KT 05/05 A3016 RMK A01 T00520050  RH  098%=      5-min Rain = 0
KMD1 072130Z 01008KT 05/05 A3017 RMK A01 T00520050  RH  098%=      5-min Rain = 0.01
KMD1 072131Z 02007KT 05/05 A3017 RMK A01 T00520050  RH  098%=      5-min Rain = 0
KMD1 072132Z 02007KT 05/05 A3017 RMK A01 T00520050  RH  098%=      5-min Rain = 0.01
KMD1 072133Z 01005KT 05/05 A3017 RMK A01 T00530050  RH  098%=      5-min Rain = 0
KMD1 072134Z 01006KT 05/05 A3017 RMK A01 T00530050  RH  098%=      5-min Rain = 0
KMD1 072135Z 00007KT 05/05 A3018 RMK A01 T00530051  RH  099%=      5-min Rain = 0
KMD1 072136Z 01006KT 05/05 A3018 RMK A01 T00530051  RH  098%=      5-min Rain = 0.01
KMD1 072137Z 00005KT 05/05 A3019 RMK A01 T00530051  RH  098%=      5-min Rain = 0
KMD1 072138Z 00005KT 05/05 A3019 RMK A01 T00530051  RH  098%=      5-min Rain = 0.01
KMD1 072139Z 36005KT 05/05 A3019 RMK A01 T00520050  RH  098%=      5-min Rain = 0
KMD1 072140Z 35005KT 05/05 A302 RMK A01 T00530050  RH  098%=      5-min Rain = 0.01
KMD1 072141Z 36006KT 05/05 A302 RMK A01 T00530050  RH  098%=      5-min Rain = 0
KMD1 072142Z 35007KT 05/05 A302 RMK A01 T00530050  RH  098%=      5-min Rain = 0
KMD1 072143Z 36007KT 05/05 A302 RMK A01 T00530050  RH  098%=      5-min Rain = 0.01
KMD1 072144Z 00007KT 05/05 A302 RMK A01 T00520050  RH  098%=      5-min Rain = 0
KMD1 072145Z 36006KT 05/05 A302 RMK A01 T00520049  RH  098%=      5-min Rain = 0.01
KMD1 072146Z 01006KT 05/05 A302 RMK A01 T00520049  RH  098%=      5-min Rain = 0.01
KMD1 072147Z 00007KT 05/05 A302 RMK A01 T00520049  RH  098%=      5-min Rain = 0
KMD1 072148Z 36008KT 05/05 A302 RMK A01 T00520049  RH  098%=      5-min Rain = 0.01
KMD1 072149Z 36008KT 05/05 A302 RMK A01 T00510048  RH  098%=      5-min Rain = 0.01
KMD1 072150Z 36009KT 05/05 A302 RMK A01 T00510048  RH  098%=      5-min Rain = 0
KMD1 072151Z 36007KT 05/05 A302 RMK A01 T00510048  RH  098%=      5-min Rain = 0.01
KMD1 072152Z 36007KT 05/05 A302 RMK A01 T00510048  RH  098%=      5-min Rain = 0
KMD1 072153Z 01006KT 05/05 A302 RMK A01 T00510048  RH  098%=      5-min Rain = 0.01
KMD1 072154Z 01008KT 05/05 A302 RMK A01 T00510048  RH  098%=      5-min Rain = 0
KMD1 072155Z 01007KT 05/05 A302 RMK A01 T00510047  RH  098%=      5-min Rain = 0.01
KMD1 072156Z 01007KT 05/05 A302 RMK A01 T00500047  RH  098%=      5-min Rain = 0
KMD1 072157Z 01006KT 05/05 A302 RMK A01 T00500047  RH  098%=      5-min Rain = 0
KMD1 072158Z 36005KT 05/05 A302 RMK A01 T00500047  RH  098%=      5-min Rain = 0.01
KMD1 072159Z 01006KT 05/05 A302 RMK A01 T00500047  RH  098%=      5-min Rain = 0
KMD1 072200Z 02006KT 05/05 A302 RMK A01 T00500047  RH  098%=      5-min Rain = 0.01
KMD1 072201Z 01006KT 05/05 A302 RMK A01 T00500047  RH  098%=      5-min Rain = 0
KMD1 072202Z 00006KT 05/05 A302 RMK A01 T00500047  RH  098%=      5-min Rain = 0.01
KMD1 072203Z 00007KT 05/05 A302 RMK A01 T00500046  RH  098%=      5-min Rain = 0
KMD1 072204Z 01007KT 05/05 A302 RMK A01 T00490046  RH  098%=      5-min Rain = 0.01
KMD1 072205Z 00008KT 05/05 A302 RMK A01 T00490046  RH  098%=      5-min Rain = 0
KMD1 072206Z 01005KT 05/05 A302 RMK A01 T00490046  RH  098%=      5-min Rain = 0
KMD1 072207Z 01004KT 05/05 A3021 RMK A01 T00500046  RH  098%=      5-min Rain = 0.01
KMD1 072208Z 01006KT 05/05 A3021 RMK A01 T00490046  RH  098%=      5-min Rain = 0
KMD1 072209Z 00005KT 05/05 A3021 RMK A01 T00500046  RH  098%=      5-min Rain = 0
KMD1 072210Z 00006KT 05/05 A3021 RMK A01 T00490046  RH  098%=      5-min Rain = 0.01
KMD1 072211Z 00005KT 05/05 A3021 RMK A01 T00490046  RH  098%=      5-min Rain = 0
KMD1 072212Z 35006KT 05/05 A3021 RMK A01 T00490046  RH  098%=      5-min Rain = 0
KMD1 072213Z 35006KT 05/05 A3022 RMK A01 T00490046  RH  098%=      5-min Rain = 0
KMD1 072214Z 35005KT 05/05 A3022 RMK A01 T00500046  RH  098%=      5-min Rain = 0.01
KMD1 072215Z 35004KT 05/05 A3022 RMK A01 T00490046  RH  098%=      5-min Rain = 0
KMD1 072216Z 35005KT 05/05 A3022 RMK A01 T00490046  RH  098%=      5-min Rain = 0
KMD1 072217Z 34004KT 05/05 A3022 RMK A01 T00490046  RH  098%=      5-min Rain = 0
KMD1 072218Z 34004KT 05/05 A3022 RMK A01 T00490046  RH  098%=      5-min Rain = 0.01
KMD1 072219Z 34006KT 05/05 A3022 RMK A01 T00490046  RH  098%=      5-min Rain = 0
KMD1 072220Z 35004KT 05/05 A3022 RMK A01 T00500046  RH  098%=      5-min Rain = 0
KMD1 072221Z 35004KT 05/05 A3022 RMK A01 T00490046  RH  098%=      5-min Rain = 0
KMD1 072222Z 35005KT 05/05 A3022 RMK A01 T00490046  RH  098%=      5-min Rain = 0.01
KMD1 072223Z 36007KT 05/05 A3022 RMK A01 T00490046  RH  098%=      5-min Rain = 0
KMD1 072224Z 36007KT 05/05 A3022 RMK A01 T00490046  RH  098%=      5-min Rain = 0
KMD1 072225Z 00007KT 05/05 A3021 RMK A01 T00490046  RH  098%=      5-min Rain = 0
KMD1 072226Z 36007KT 05/05 A3021 RMK A01 T00490046  RH  098%=      5-min Rain = 0.01
KMD1 072227Z 35006KT 05/05 A3021 RMK A01 T00490046  RH  098%=      5-min Rain = 0
KMD1 072228Z 35005KT 05/05 A3021 RMK A01 T00490046  RH  098%=      5-min Rain = 0
KMD1 072229Z 36005KT 05/05 A3021 RMK A01 T00490046  RH  098%=      5-min Rain = 0
KMD1 072230Z 36006KT 05/05 A3021 RMK A01 T00500047  RH  098%=      5-min Rain = 0.01
KMD1 072231Z 36005KT 05/05 A3021 RMK A01 T00500047  RH  098%=      5-min Rain = 0
KMD1 072232Z 35005KT 05/05 A3021 RMK A01 T00500047  RH  098%=      5-min Rain = 0
KMD1 072233Z 00006KT 05/05 A3021 RMK A01 T00500047  RH  098%=      5-min Rain = 0
KMD1 072234Z 01006KT 05/05 A3021 RMK A01 T00500047  RH  098%=      5-min Rain = 0.01
KMD1 072235Z 01007KT 05/05 A3021 RMK A01 T00500047  RH  098%=      5-min Rain = 0
KMD1 072236Z 01007KT 05/05 A3021 RMK A01 T00500047  RH  098%=      5-min Rain = 0
KMD1 072237Z 36006KT 05/05 A3021 RMK A01 T00500047  RH  098%=      5-min Rain = 0
KMD1 072238Z 00007KT 05/05 A3021 RMK A01 T00500047  RH  098%=      5-min Rain = 0
KMD1 072239Z 00006KT 05/05 A3021 RMK A01 T00500047  RH  098%=      5-min Rain = 0
KMD1 072240Z 35005KT 05/05 A3021 RMK A01 T00500047  RH  098%=      5-min Rain = 0.01
KMD1 072241Z 35007KT 05/05 A3021 RMK A01 T00500047  RH  098%=      5-min Rain = 0
KMD1 072242Z 36007KT 05/05 A3021 RMK A01 T00500047  RH  098%=      5-min Rain = 0
KMD1 072243Z 35007KT 05/05 A3021 RMK A01 T00500047  RH  098%=      5-min Rain = 0
KMD1 072244Z 36007KT 05/05 A3021 RMK A01 T00500047  RH  098%=      5-min Rain = 0
KMD1 072245Z 00007KT 05/05 A3021 RMK A01 T00500047  RH  098%=      5-min Rain = 0
KMD1 072246Z 00009KT 05/05 A302 RMK A01 T00510048  RH  098%=      5-min Rain = 0
KMD1 072247Z 01006KT 05/05 A302 RMK A01 T00510048  RH  098%=      5-min Rain = 0
KMD1 072248Z 01006KT 05/05 A302 RMK A01 T00510047  RH  098%=      5-min Rain = 0
KMD1 072249Z 01006KT 05/05 A302 RMK A01 T00510048  RH  098%=      5-min Rain = 0
KMD1 072250Z 01008KT 05/05 A302 RMK A01 T00510048  RH  098%=      5-min Rain = 0
KMD1 072251Z 01008KT 05/05 A302 RMK A01 T00510048  RH  098%=      5-min Rain = 0
KMD1 072252Z 00008KT 05/05 A302 RMK A01 T00520048  RH  098%=      5-min Rain = 0
KMD1 072253Z 01009KT 05/05 A302 RMK A01 T00510048  RH  098%=      5-min Rain = 0
KMD1 072254Z 01010KT 05/05 A302 RMK A01 T00510048  RH  098%=      5-min Rain = 0.01
KMD1 072255Z 01009KT 05/05 A302 RMK A01 T00510047  RH  098%=      5-min Rain = 0
KMD1 072256Z 01007KT 05/05 A302 RMK A01 T00510047  RH  098%=      5-min Rain = 0
KMD1 072257Z 02008KT 05/05 A302 RMK A01 T00510047  RH  098%=      5-min Rain = 0
KMD1 072258Z 01007KT 05/05 A302 RMK A01 T00510048  RH  098%=      5-min Rain = 0
KMD1 072259Z 02006KT 05/05 A302 RMK A01 T00510048  RH  098%=      5-min Rain = 0
KMD1 072300Z 01007KT 05/05 A3021 RMK A01 T00520048  RH  098%=      5-min Rain = 0
KMD1 072301Z 01007KT 05/05 A3021 RMK A01 T00520048  RH  098%=      5-min Rain = 0
KMD1 072302Z 02008KT 05/05 A3021 RMK A01 T00510048  RH  098%=      5-min Rain = 0
KMD1 072303Z 01007KT 05/05 A3021 RMK A01 T00510047  RH  097%=      5-min Rain = 0
KMD1 072304Z 01006KT 05/05 A3021 RMK A01 T00510047  RH  097%=      5-min Rain = 0
KMD1 072305Z 01005KT 05/05 A302 RMK A01 T00510047  RH  098%=      5-min Rain = 0
KMD1 072306Z 01008KT 05/05 A302 RMK A01 T00510048  RH  098%=      5-min Rain = 0
KMD1 072307Z 02009KT 05/05 A302 RMK A01 T00510047  RH  097%=      5-min Rain = 0
KMD1 072308Z 02010KT 05/05 A302 RMK A01 T00510047  RH  097%=      5-min Rain = 0
KMD1 072309Z 02009KT 05/05 A302 RMK A01 T00510047  RH  097%=      5-min Rain = 0
KMD1 072310Z 02008KT 05/05 A302 RMK A01 T00510047  RH  097%=      5-min Rain = 0
KMD1 072311Z 01008KT 05/05 A302 RMK A01 T00510047  RH  097%=      5-min Rain = 0
KMD1 072312Z 01010KT 05/05 A302 RMK A01 T00510047  RH  097%=      5-min Rain = 0
KMD1 072313Z 02007KT 05/05 A302 RMK A01 T00510047  RH  097%=      5-min Rain = 0
KMD1 072314Z 02007KT 05/05 A302 RMK A01 T00510047  RH  097%=      5-min Rain = 0
KMD1 072315Z 02006KT 05/05 A302 RMK A01 T00510047  RH  097%=      5-min Rain = 0
KMD1 072316Z 02006KT 05/05 A3021 RMK A01 T00510047  RH  097%=      5-min Rain = 0
KMD1 072317Z 03004KT 05/05 A3021 RMK A01 T00510047  RH  097%=      5-min Rain = 0
KMD1 072318Z 03003KT 05/05 A3021 RMK A01 T00510047  RH  097%=      5-min Rain = 0
KMD1 072319Z 03004KT 05/05 A3021 RMK A01 T00510047  RH  097%=      5-min Rain = 0
KMD1 072320Z 03006KT 05/05 A3022 RMK A01 T00510047  RH  097%=      5-min Rain = 0
KMD1 072321Z 02005KT 05/05 A3022 RMK A01 T00500047  RH  097%=      5-min Rain = 0
KMD1 072322Z 04005KT 05/05 A3022 RMK A01 T00500046  RH  097%=      5-min Rain = 0
KMD1 072323Z 04006KT 05/05 A3022 RMK A01 T00500047  RH  097%=      5-min Rain = 0.01
KMD1 072324Z 03007KT 05/05 A3021 RMK A01 T00510047  RH  098%=      5-min Rain = 0
KMD1 072325Z 04007KT 05/05 A3021 RMK A01 T00500047  RH  097%=      5-min Rain = 0
KMD1 072326Z 04007KT 05/05 A3021 RMK A01 T00500047  RH  097%=      5-min Rain = 0
KMD1 072327Z 04008KT 05/05 A3021 RMK A01 T00500047  RH  097%=      5-min Rain = 0
KMD1 072328Z 04007KT 05/05 A302 RMK A01 T00510047  RH  098%=      5-min Rain = 0
KMD1 072329Z 03008KT 05/05 A302 RMK A01 T00500047  RH  098%=      5-min Rain = 0
KMD1 072330Z 03009KT 05/05 A302 RMK A01 T00500046  RH  098%=      5-min Rain = 0
KMD1 072331Z 03008KT 05/05 A302 RMK A01 T00500046  RH  098%=      5-min Rain = 0
KMD1 072332Z 04009KT 05/05 A302 RMK A01 T00500046  RH  098%=      5-min Rain = 0.01
KMD1 072333Z 03008KT 05/05 A302 RMK A01 T00500046  RH  098%=      5-min Rain = 0
KMD1 072334Z 03008KT 05/05 A302 RMK A01 T00490046  RH  098%=      5-min Rain = 0
KMD1 072335Z 04008KT 05/05 A302 RMK A01 T00490046  RH  098%=      5-min Rain = 0
KMD1 072336Z 04008KT 05/05 A3019 RMK A01 T00490046  RH  098%=      5-min Rain = 0
KMD1 072337Z 04008KT 05/05 A3019 RMK A01 T00490046  RH  098%=      5-min Rain = 0
KMD1 072338Z 03010KT 05/05 A3019 RMK A01 T00500046  RH  098%=      5-min Rain = 0
KMD1 072339Z 03009KT 05/05 A3019 RMK A01 T00490046  RH  098%=      5-min Rain = 0
KMD1 072340Z 03009KT 05/05 A3019 RMK A01 T00490045  RH  098%=      5-min Rain = 0
KMD1 072341Z 02007KT 05/05 A3019 RMK A01 T00490045  RH  098%=      5-min Rain = 0
KMD1 072342Z 02007KT 05/05 A3019 RMK A01 T00480045  RH  098%=      5-min Rain = 0
KMD1 072343Z 02009KT 05/05 A3019 RMK A01 T00490045  RH  098%=      5-min Rain = 0
KMD1 072344Z 01007KT 05/05 A3019 RMK A01 T00480045  RH  098%=      5-min Rain = 0
KMD1 072345Z 00005KT 05/05 A302 RMK A01 T00480045  RH  098%=      5-min Rain = 0
KMD1 072346Z 00007KT 05/05 A302 RMK A01 T00480045  RH  098%=      5-min Rain = 0.01
KMD1 072347Z 35006KT 05/04 A302 RMK A01 T00470044  RH  098%=      5-min Rain = 0
KMD1 072348Z 36006KT 05/04 A3021 RMK A01 T00470044  RH  098%=      5-min Rain = 0
KMD1 072349Z 35004KT 05/04 A3021 RMK A01 T00470043  RH  098%=      5-min Rain = 0
KMD1 072350Z 35005KT 05/04 A3021 RMK A01 T00470043  RH  098%=      5-min Rain = 0
KMD1 072351Z 36004KT 05/04 A3021 RMK A01 T00460043  RH  098%=      5-min Rain = 0
KMD1 072352Z 36004KT 05/04 A3022 RMK A01 T00460043  RH  098%=      5-min Rain = 0
KMD1 072353Z 35003KT 05/04 A3022 RMK A01 T00460043  RH  098%=      5-min Rain = 0
KMD1 072354Z 34004KT 05/04 A3022 RMK A01 T00460043  RH  098%=      5-min Rain = 0
KMD1 072355Z 35004KT 05/04 A3022 RMK A01 T00460043  RH  098%=      5-min Rain = 0
KMD1 072356Z 36003KT 05/04 A3022 RMK A01 T00460043  RH  098%=      5-min Rain = 0
KMD1 072357Z 36005KT 05/04 A3022 RMK A01 T00460043  RH  098%=      5-min Rain = 0
KMD1 072358Z 36004KT 05/04 A3022 RMK A01 T00460043  RH  098%=      5-min Rain = 0
KMD1 072359Z 35003KT 05/04 A3023 RMK A01 T00460043  RH  098%=      5-min Rain = 0
KMD1 080000Z 35004KT 05/04 A3023 RMK A01 T00460043  RH  098%=      5-min Rain = 0
KMD1 080001Z 35004KT 05/04 A3023 RMK A01 T00460043  RH  098%=      5-min Rain = 0
KMD1 080002Z 34005KT 05/04 A3023 RMK A01 T00460043  RH  098%=      5-min Rain = 0
KMD1 080003Z 35006KT 05/04 A3023 RMK A01 T00460043  RH  098%=      5-min Rain = 0
KMD1 080004Z 36006KT 05/04 A3023 RMK A01 T00450042  RH  098%=      5-min Rain = 0.01
KMD1 080005Z 35006KT 05/04 A3022 RMK A01 T00450042  RH  098%=      5-min Rain = 0
KMD1 080006Z 35005KT 05/04 A3022 RMK A01 T00450042  RH  098%=      5-min Rain = 0.01
KMD1 080007Z 36005KT 05/04 A3022 RMK A01 T00450042  RH  098%=      5-min Rain = 0
KMD1 080008Z 35006KT 05/04 A3022 RMK A01 T00450042  RH  098%=      5-min Rain = 0
KMD1 080009Z 35007KT 05/04 A3022 RMK A01 T00450042  RH  098%=      5-min Rain = 0.01
KMD1 080010Z 35007KT 05/04 A3022 RMK A01 T00450042  RH  098%=      5-min Rain = 0
KMD1 080011Z 36007KT 04/04 A3022 RMK A01 T00440041  RH  098%=      5-min Rain = 0
KMD1 080012Z 36007KT 04/04 A3022 RMK A01 T00440042  RH  098%=      5-min Rain = 0.01
KMD1 080013Z 35006KT 04/04 A3022 RMK A01 T00440041  RH  098%=      5-min Rain = 0
KMD1 080014Z 35005KT 04/04 A3022 RMK A01 T00440042  RH  098%=      5-min Rain = 0
KMD1 080015Z 35005KT 04/04 A3022 RMK A01 T00440042  RH  098%=      5-min Rain = 0
KMD1 080016Z 34004KT 04/04 A3023 RMK A01 T00440042  RH  098%=      5-min Rain = 0
KMD1 080017Z 34004KT 04/04 A3023 RMK A01 T00440042  RH  098%=      5-min Rain = 0
KMD1 080018Z 33003KT 04/04 A3023 RMK A01 T00440042  RH  098%=      5-min Rain = 0.01
KMD1 080019Z 32003KT 04/04 A3023 RMK A01 T00440042  RH  098%=      5-min Rain = 0
KMD1 080020Z 33003KT 04/04 A3024 RMK A01 T00440042  RH  098%=      5-min Rain = 0
KMD1 080021Z 33002KT 04/04 A3024 RMK A01 T00440041  RH  098%=      5-min Rain = 0
KMD1 080022Z 33004KT 04/04 A3024 RMK A01 T00440041  RH  098%=      5-min Rain = 0
KMD1 080023Z 33004KT 04/04 A3023 RMK A01 T00440041  RH  098%=      5-min Rain = 0
KMD1 080024Z 34004KT 04/04 A3023 RMK A01 T00440041  RH  098%=      5-min Rain = 0.01
KMD1 080025Z 34005KT 04/04 A3023 RMK A01 T00440041  RH  098%=      5-min Rain = 0
KMD1 080026Z 35004KT 04/04 A3023 RMK A01 T00440042  RH  098%=      5-min Rain = 0
KMD1 080027Z 35004KT 04/04 A3023 RMK A01 T00440042  RH  098%=      5-min Rain = 0
KMD1 080028Z 35003KT 04/04 A3023 RMK A01 T00440042  RH  098%=      5-min Rain = 0
KMD1 080029Z 34004KT 04/04 A3023 RMK A01 T00440042  RH  098%=      5-min Rain = 0
KMD1 080030Z 35005KT 04/04 A3023 RMK A01 T00440042  RH  098%=      5-min Rain = 0
KMD1 080031Z 00004KT 04/04 A3023 RMK A01 T00440041  RH  098%=      5-min Rain = 0
KMD1 080032Z 36005KT 04/04 A3023 RMK A01 T00440042  RH  098%=      5-min Rain = 0.01
KMD1 080033Z 36004KT 04/04 A3023 RMK A01 T00440042  RH  098%=      5-min Rain = 0
KMD1 080034Z 00004KT 04/04 A3022 RMK A01 T00440042  RH  098%=      5-min Rain = 0
KMD1 080035Z 36004KT 04/04 A3022 RMK A01 T00440042  RH  098%=      5-min Rain = 0
KMD1 080036Z 36003KT 04/04 A3023 RMK A01 T00440042  RH  098%=      5-min Rain = 0.01
KMD1 080037Z 35002KT 04/04 A3023 RMK A01 T00440042  RH  098%=      5-min Rain = 0
KMD1 080038Z 35003KT 04/04 A3023 RMK A01 T00440042  RH  098%=      5-min Rain = 0
KMD1 080039Z 35004KT 04/04 A3023 RMK A01 T00440042  RH  098%=      5-min Rain = 0
KMD1 080040Z 35004KT 04/04 A3023 RMK A01 T00440041  RH  098%=      5-min Rain = 0.01
KMD1 080041Z 35003KT 04/04 A3023 RMK A01 T00430041  RH  098%=      5-min Rain = 0
KMD1 080042Z 36003KT 04/04 A3023 RMK A01 T00430041  RH  098%=      5-min Rain = 0
KMD1 080043Z 01006KT 04/04 A3023 RMK A01 T00430041  RH  098%=      5-min Rain = 0
KMD1 080044Z 00005KT 04/04 A3022 RMK A01 T00430041  RH  099%=      5-min Rain = 0.01
KMD1 080045Z 01006KT 04/04 A3022 RMK A01 T00430041  RH  099%=      5-min Rain = 0
KMD1 080046Z 36006KT 04/04 A3022 RMK A01 T00430041  RH  098%=      5-min Rain = 0
KMD1 080047Z 00006KT 04/04 A3022 RMK A01 T00430040  RH  098%=      5-min Rain = 0
KMD1 080048Z 01006KT 04/04 A3022 RMK A01 T00420040  RH  098%=      5-min Rain = 0
KMD1 080049Z 00006KT 04/04 A3022 RMK A01 T00420040  RH  098%=      5-min Rain = 0.01
KMD1 080050Z 00006KT 04/04 A3022 RMK A01 T00420040  RH  099%=      5-min Rain = 0
KMD1 080051Z 00006KT 04/04 A3022 RMK A01 T00420040  RH  099%=      5-min Rain = 0
KMD1 080052Z 00006KT 04/04 A3022 RMK A01 T00420040  RH  098%=      5-min Rain = 0
KMD1 080053Z 00005KT 04/04 A3022 RMK A01 T00430041  RH  099%=      5-min Rain = 0
KMD1 080054Z 01005KT 04/04 A3021 RMK A01 T00430041  RH  099%=      5-min Rain = 0.01
KMD1 080055Z 01006KT 04/04 A3021 RMK A01 T00430041  RH  099%=      5-min Rain = 0
KMD1 080056Z 01005KT 04/04 A3021 RMK A01 T00430041  RH  099%=      5-min Rain = 0
KMD1 080057Z 01007KT 04/04 A3021 RMK A01 T00430041  RH  099%=      5-min Rain = 0
KMD1 080058Z 01007KT 04/04 A3021 RMK A01 T00430041  RH  099%=      5-min Rain = 0
KMD1 080059Z 00008KT 04/04 A3021 RMK A01 T00430041  RH  099%=      5-min Rain = 0
KMD1 080100Z 01007KT 04/04 A302 RMK A01 T00430041  RH  099%=      5-min Rain = 0
KMD1 080101Z 00009KT 04/04 A302 RMK A01 T00430041  RH  099%=      5-min Rain = 0.01
KMD1 080102Z 00008KT 04/04 A302 RMK A01 T00420040  RH  099%=      5-min Rain = 0
KMD1 080103Z 00008KT 04/04 A302 RMK A01 T00420040  RH  099%=      5-min Rain = 0
KMD1 080104Z 36009KT 04/04 A302 RMK A01 T00420040  RH  099%=      5-min Rain = 0
KMD1 080105Z 00008KT 04/04 A3021 RMK A01 T00420040  RH  099%=      5-min Rain = 0.01
KMD1 080106Z 00009KT 04/04 A3021 RMK A01 T00410039  RH  099%=      5-min Rain = 0
KMD1 080107Z 00009KT 04/04 A3021 RMK A01 T00410039  RH  099%=      5-min Rain = 0
KMD1 080108Z 35007KT 04/04 A3021 RMK A01 T00410039  RH  099%=      5-min Rain = 0
KMD1 080109Z 35008KT 04/04 A3021 RMK A01 T00410039  RH  099%=      5-min Rain = 0
KMD1 080110Z 35009KT 04/04 A3021 RMK A01 T00410039  RH  099%=      5-min Rain = 0.01
KMD1 080111Z 00009KT 04/04 A3022 RMK A01 T00410039  RH  099%=      5-min Rain = 0
KMD1 080112Z 35007KT 04/04 A3022 RMK A01 T00410039  RH  098%=      5-min Rain = 0
KMD1 080113Z 00008KT 04/04 A3022 RMK A01 T00410039  RH  099%=      5-min Rain = 0
KMD1 080114Z 36008KT 04/04 A3021 RMK A01 T00410039  RH  098%=      5-min Rain = 0
KMD1 080115Z 36009KT 04/04 A3021 RMK A01 T00410039  RH  098%=      5-min Rain = 0
KMD1 080116Z 00008KT 04/04 A3021 RMK A01 T00410039  RH  098%=      5-min Rain = 0.01
KMD1 080117Z 36009KT 04/04 A3021 RMK A01 T00410039  RH  098%=      5-min Rain = 0
KMD1 080118Z 36010KT 04/04 A3021 RMK A01 T00410038  RH  098%=      5-min Rain = 0
KMD1 080119Z 00008KT 04/04 A3021 RMK A01 T00410038  RH  098%=      5-min Rain = 0
KMD1 080120Z 00008KT 04/04 A3021 RMK A01 T00410038  RH  098%=      5-min Rain = 0
KMD1 080121Z 00009KT 04/04 A3021 RMK A01 T00410038  RH  098%=      5-min Rain = 0
KMD1 080122Z 01009KT 04/04 A3021 RMK A01 T00410038  RH  098%=      5-min Rain = 0.01
KMD1 080123Z 01009KT 04/04 A3022 RMK A01 T00410038  RH  098%=      5-min Rain = 0
KMD1 080124Z 01008KT 04/04 A3022 RMK A01 T00400038  RH  098%=      5-min Rain = 0
KMD1 080125Z 01008KT 04/04 A3022 RMK A01 T00400038  RH  098%=      5-min Rain = 0
KMD1 080126Z 01008KT 04/04 A3022 RMK A01 T00400038  RH  098%=      5-min Rain = 0
KMD1 080127Z 36010KT 04/04 A3022 RMK A01 T00400037  RH  098%=      5-min Rain = 0
KMD1 080128Z 00010KT 04/04 A3022 RMK A01 T00400037  RH  098%=      5-min Rain = 0
KMD1 080129Z 00009KT 04/04 A3022 RMK A01 T00400037  RH  098%=      5-min Rain = 0.01
KMD1 080130Z 01008KT 04/04 A3022 RMK A01 T00400037  RH  098%=      5-min Rain = 0
KMD1 080131Z 02009KT 04/04 A3022 RMK A01 T00400037  RH  098%=      5-min Rain = 0
KMD1 080132Z 01010KT 04/04 A3022 RMK A01 T00400037  RH  098%=      5-min Rain = 0
KMD1 080133Z 01010KT 04/04 A3021 RMK A01 T00400037  RH  098%=      5-min Rain = 0
KMD1 080134Z 02010KT 04/04 A3021 RMK A01 T00400037  RH  098%=      5-min Rain = 0
KMD1 080135Z 02012KT 04/04 A3021 RMK A01 T00390036  RH  098%=      5-min Rain = 0
KMD1 080136Z 01010KT 04/04 A3021 RMK A01 T00390036  RH  098%=      5-min Rain = 0
KMD1 080137Z 01010KT 04/04 A3021 RMK A01 T00390036  RH  098%=      5-min Rain = 0
KMD1 080138Z 01012KT 04/04 A3021 RMK A01 T00390036  RH  098%=      5-min Rain = 0.01
KMD1 080139Z 01010KT 04/04 A3021 RMK A01 T00390035  RH  098%=      5-min Rain = 0
KMD1 080140Z 01012KT 04/04 A3021 RMK A01 T00390035  RH  098%=      5-min Rain = 0
KMD1 080141Z 02010KT 04/04 A3021 RMK A01 T00390035  RH  098%=      5-min Rain = 0
KMD1 080142Z 02010KT 04/04 A3021 RMK A01 T00390035  RH  098%=      5-min Rain = 0
KMD1 080143Z 02010KT 04/04 A3021 RMK A01 T00390035  RH  097%=      5-min Rain = 0
KMD1 080144Z 02010KT 04/04 A3021 RMK A01 T00390035  RH  097%=      5-min Rain = 0
KMD1 080145Z 02012KT 04/04 A3021 RMK A01 T00390035  RH  097%=      5-min Rain = 0
KMD1 080146Z 01010KT 04/04 A3021 RMK A01 T00380035  RH  097%=      5-min Rain = 0
KMD1 080147Z 01011KT 04/04 A3021 RMK A01 T00380035  RH  097%=      5-min Rain = 0
KMD1 080148Z 01009KT 04/04 A3021 RMK A01 T00380035  RH  097%=      5-min Rain = 0
KMD1 080149Z 00009KT 04/04 A3021 RMK A01 T00390035  RH  097%=      5-min Rain = 0.01
KMD1 080150Z 00009KT 04/04 A3021 RMK A01 T00390035  RH  097%=      5-min Rain = 0
KMD1 080151Z 01010KT 04/04 A3021 RMK A01 T00390035  RH  097%=      5-min Rain = 0
KMD1 080152Z 00007KT 04/04 A3021 RMK A01 T00390035  RH  097%=      5-min Rain = 0
KMD1 080153Z 00008KT 04/04 A3021 RMK A01 T00390035  RH  097%=      5-min Rain = 0
KMD1 080154Z 00008KT 04/04 A3021 RMK A01 T00390035  RH  098%=      5-min Rain = 0
KMD1 080155Z 00006KT 04/04 A3022 RMK A01 T00390035  RH  098%=      5-min Rain = 0
KMD1 080156Z 01007KT 04/04 A3022 RMK A01 T00390035  RH  098%=      5-min Rain = 0
KMD1 080157Z 36008KT 04/04 A3022 RMK A01 T00390035  RH  098%=      5-min Rain = 0.01
KMD1 080158Z 01009KT 04/04 A3022 RMK A01 T00390036  RH  098%=      5-min Rain = 0
KMD1 080159Z 01009KT 04/04 A3022 RMK A01 T00390035  RH  098%=      5-min Rain = 0
KMD1 080200Z 01008KT 04/04 A3022 RMK A01 T00390035  RH  098%=      5-min Rain = 0
KMD1 080201Z 00007KT 04/04 A3022 RMK A01 T00390035  RH  098%=      5-min Rain = 0
KMD1 080202Z 00008KT 04/04 A3022 RMK A01 T00390035  RH  098%=      5-min Rain = 0
KMD1 080203Z 00008KT 04/04 A3022 RMK A01 T00390035  RH  098%=      5-min Rain = 0
KMD1 080204Z 00008KT 04/04 A3022 RMK A01 T00390035  RH  098%=      5-min Rain = 0
KMD1 080205Z 36007KT 04/04 A3022 RMK A01 T00390035  RH  097%=      5-min Rain = 0
KMD1 080206Z 36008KT 04/04 A3022 RMK A01 T00390035  RH  097%=      5-min Rain = 0.01
KMD1 080207Z 00009KT 04/04 A3023 RMK A01 T00390035  RH  097%=      5-min Rain = 0
KMD1 080208Z 36007KT 04/04 A3023 RMK A01 T00390035  RH  098%=      5-min Rain = 0
KMD1 080209Z 35006KT 04/04 A3023 RMK A01 T00390036  RH  098%=      5-min Rain = 0
KMD1 080210Z 34006KT 04/04 A3023 RMK A01 T00390036  RH  098%=      5-min Rain = 0
KMD1 080211Z 34005KT 04/04 A3023 RMK A01 T00390036  RH  098%=      5-min Rain = 0
KMD1 080212Z 34005KT 04/04 A3023 RMK A01 T00400036  RH  098%=      5-min Rain = 0
KMD1 080213Z 34004KT 04/04 A3023 RMK A01 T00400037  RH  098%=      5-min Rain = 0.01
KMD1 080214Z 34005KT 04/04 A3023 RMK A01 T00400036  RH  098%=      5-min Rain = 0
KMD1 080215Z 33005KT 04/04 A3023 RMK A01 T00390036  RH  098%=      5-min Rain = 0
KMD1 080216Z 33007KT 04/04 A3023 RMK A01 T00390036  RH  098%=      5-min Rain = 0
KMD1 080217Z 33006KT 04/04 A3024 RMK A01 T00390036  RH  098%=      5-min Rain = 0.01
KMD1 080218Z 33008KT 04/04 A3024 RMK A01 T00390035  RH  098%=      5-min Rain = 0
KMD1 080219Z 35009KT 04/04 A3024 RMK A01 T00380035  RH  098%=      5-min Rain = 0
KMD1 080220Z 34006KT 04/04 A3024 RMK A01 T00380035  RH  098%=      5-min Rain = 0
KMD1 080221Z 35005KT 04/04 A3024 RMK A01 T00380035  RH  098%=      5-min Rain = 0.01
KMD1 080222Z 35007KT 04/04 A3024 RMK A01 T00380035  RH  098%=      5-min Rain = 0
KMD1 080223Z 34006KT 04/04 A3024 RMK A01 T00380035  RH  098%=      5-min Rain = 0
KMD1 080224Z 33006KT 04/04 A3024 RMK A01 T00380035  RH  098%=      5-min Rain = 0
KMD1 080225Z 33005KT 04/03 A3024 RMK A01 T00380034  RH  098%=      5-min Rain = 0.01
KMD1 080226Z 33005KT 04/03 A3024 RMK A01 T00370034  RH  098%=      5-min Rain = 0
KMD1 080227Z 34005KT 04/03 A3024 RMK A01 T00380034  RH  098%=      5-min Rain = 0
KMD1 080228Z 35006KT 04/03 A3024 RMK A01 T00370033  RH  098%=      5-min Rain = 0
KMD1 080229Z 35004KT 04/03 A3024 RMK A01 T00370034  RH  098%=      5-min Rain = 0.01
KMD1 080230Z 33004KT 04/03 A3024 RMK A01 T00370034  RH  098%=      5-min Rain = 0
KMD1 080231Z 34005KT 04/03 A3024 RMK A01 T00370034  RH  098%=      5-min Rain = 0
KMD1 080232Z 34004KT 04/03 A3024 RMK A01 T00370034  RH  098%=      5-min Rain = 0
KMD1 080233Z 33003KT 04/03 A3024 RMK A01 T00370034  RH  098%=      5-min Rain = 0
KMD1 080234Z 33003KT 04/03 A3024 RMK A01 T00370034  RH  098%=      5-min Rain = 0.01
KMD1 080235Z 34004KT 04/03 A3024 RMK A01 T00370034  RH  098%=      5-min Rain = 0
KMD1 080236Z 34006KT 04/03 A3024 RMK A01 T00370034  RH  098%=      5-min Rain = 0
KMD1 080237Z 34005KT 04/03 A3024 RMK A01 T00370034  RH  098%=      5-min Rain = 0
KMD1 080238Z 34004KT 04/03 A3024 RMK A01 T00370034  RH  098%=      5-min Rain = 0
KMD1 080239Z 33005KT 04/03 A3024 RMK A01 T00360034  RH  098%=      5-min Rain = 0.01
KMD1 080240Z 34005KT 04/03 A3024 RMK A01 T00360034  RH  098%=      5-min Rain = 0
KMD1 080241Z 34005KT 04/03 A3024 RMK A01 T00370034  RH  098%=      5-min Rain = 0
KMD1 080242Z 35005KT 04/03 A3024 RMK A01 T00370034  RH  098%=      5-min Rain = 0
KMD1 080243Z 35004KT 04/03 A3024 RMK A01 T00370034  RH  098%=      5-min Rain = 0
KMD1 080244Z 36006KT 04/03 A3024 RMK A01 T00370034  RH  098%=      5-min Rain = 0.01
KMD1 080245Z 36005KT 04/03 A3024 RMK A01 T00360034  RH  098%=      5-min Rain = 0
KMD1 080246Z 35006KT 04/03 A3024 RMK A01 T00370034  RH  098%=      5-min Rain = 0
KMD1 080247Z 35006KT 04/03 A3024 RMK A01 T00370034  RH  098%=      5-min Rain = 0
KMD1 080248Z 35005KT 04/03 A3024 RMK A01 T00370034  RH  098%=      5-min Rain = 0.01
KMD1 080249Z 36008KT 04/03 A3025 RMK A01 T00370034  RH  098%=      5-min Rain = 0
KMD1 080250Z 35007KT 04/04 A3025 RMK A01 T00370035  RH  098%=      5-min Rain = 0
KMD1 080251Z 35007KT 04/04 A3025 RMK A01 T00370035  RH  098%=      5-min Rain = 0
KMD1 080252Z 35007KT 04/03 A3025 RMK A01 T00370034  RH  098%=      5-min Rain = 0
KMD1 080253Z 35008KT 04/04 A3025 RMK A01 T00370035  RH  098%=      5-min Rain = 0.01
KMD1 080254Z 36007KT 04/03 A3025 RMK A01 T00370034  RH  098%=      5-min Rain = 0
KMD1 080255Z 35008KT 04/03 A3025 RMK A01 T00370034  RH  098%=      5-min Rain = 0
KMD1 080256Z 00008KT 04/03 A3025 RMK A01 T00370034  RH  098%=      5-min Rain = 0
KMD1 080257Z 35008KT 04/03 A3025 RMK A01 T00370034  RH  098%=      5-min Rain = 0.01
KMD1 080258Z 00008KT 04/03 A3025 RMK A01 T00360033  RH  098%=      5-min Rain = 0
KMD1 080259Z 00008KT 04/03 A3025 RMK A01 T00360033  RH  098%=      5-min Rain = 0
KMD1 080300Z 01006KT 04/03 A3025 RMK A01 T00360033  RH  098%=      5-min Rain = 0.01
KMD1 080301Z 01006KT 04/03 A3025 RMK A01 T00360033  RH  098%=      5-min Rain = 0
KMD1 080302Z 36006KT 04/03 A3025 RMK A01 T00360033  RH  098%=      5-min Rain = 0
KMD1 080303Z 00007KT 04/03 A3025 RMK A01 T00360033  RH  098%=      5-min Rain = 0.01
KMD1 080304Z 01007KT 04/03 A3025 RMK A01 T00360033  RH  098%=      5-min Rain = 0
KMD1 080305Z 00005KT 04/03 A3025 RMK A01 T00360033  RH  098%=      5-min Rain = 0
KMD1 080306Z 00006KT 04/03 A3025 RMK A01 T00360033  RH  098%=      5-min Rain = 0
KMD1 080307Z 36005KT 04/03 A3025 RMK A01 T00360033  RH  098%=      5-min Rain = 0.01
KMD1 080308Z 01004KT 04/03 A3025 RMK A01 T00360033  RH  098%=      5-min Rain = 0
KMD1 080309Z 01005KT 04/03 A3025 RMK A01 T00350032  RH  098%=      5-min Rain = 0
KMD1 080310Z 01006KT 04/03 A3025 RMK A01 T00360033  RH  098%=      5-min Rain = 0
KMD1 080311Z 00005KT 04/03 A3025 RMK A01 T00360033  RH  098%=      5-min Rain = 0.01
KMD1 080312Z 01005KT 04/03 A3025 RMK A01 T00360032  RH  098%=      5-min Rain = 0
KMD1 080313Z 01006KT 04/03 A3025 RMK A01 T00360033  RH  098%=      5-min Rain = 0
KMD1 080314Z 01006KT 04/03 A3025 RMK A01 T00360033  RH  098%=      5-min Rain = 0
KMD1 080315Z 02006KT 04/03 A3025 RMK A01 T00360033  RH  098%=      5-min Rain = 0.01
KMD1 080316Z 02005KT 04/03 A3025 RMK A01 T00360033  RH  098%=      5-min Rain = 0
KMD1 080317Z 02004KT 04/03 A3025 RMK A01 T00360033  RH  098%=      5-min Rain = 0
KMD1 080318Z 02005KT 04/03 A3025 RMK A01 T00360033  RH  098%=      5-min Rain = 0
KMD1 080319Z 03006KT 04/03 A3025 RMK A01 T00360033  RH  098%=      5-min Rain = 0
KMD1 080320Z 02007KT 04/03 A3024 RMK A01 T00360033  RH  098%=      5-min Rain = 0.01
KMD1 080321Z 02005KT 04/03 A3024 RMK A01 T00360033  RH  098%=      5-min Rain = 0
KMD1 080322Z 04005KT 04/03 A3024 RMK A01 T00360033  RH  098%=      5-min Rain = 0
KMD1 080323Z 04005KT 04/03 A3024 RMK A01 T00360033  RH  098%=      5-min Rain = 0
KMD1 080324Z 04004KT 04/03 A3024 RMK A01 T00360033  RH  098%=      5-min Rain = 0
KMD1 080325Z 04006KT 04/03 A3023 RMK A01 T00360033  RH  098%=      5-min Rain = 0.01
KMD1 080326Z 04006KT 04/03 A3023 RMK A01 T00360034  RH  098%=      5-min Rain = 0
KMD1 080327Z 03007KT 04/03 A3023 RMK A01 T00360033  RH  098%=      5-min Rain = 0
KMD1 080328Z 04005KT 04/03 A3023 RMK A01 T00360033  RH  098%=      5-min Rain = 0
KMD1 080329Z 03006KT 04/03 A3023 RMK A01 T00360033  RH  098%=      5-min Rain = 0.01
KMD1 080330Z 03008KT 04/03 A3023 RMK A01 T00360034  RH  098%=      5-min Rain = 0
KMD1 080331Z 04006KT 04/03 A3023 RMK A01 T00360033  RH  098%=      5-min Rain = 0
KMD1 080332Z 04005KT 04/03 A3023 RMK A01 T00350033  RH  098%=      5-min Rain = 0
KMD1 080333Z 03005KT 04/03 A3023 RMK A01 T00360033  RH  098%=      5-min Rain = 0
KMD1 080334Z 03005KT 04/03 A3023 RMK A01 T00360033  RH  098%=      5-min Rain = 0.01
KMD1 080335Z 03005KT 04/03 A3023 RMK A01 T00360033  RH  098%=      5-min Rain = 0
KMD1 080336Z 03004KT 04/03 A3023 RMK A01 T00350033  RH  098%=      5-min Rain = 0
KMD1 080337Z 03005KT 04/03 A3023 RMK A01 T00350033  RH  098%=      5-min Rain = 0
KMD1 080338Z 03007KT 04/03 A3023 RMK A01 T00360033  RH  098%=      5-min Rain = 0
KMD1 080339Z 04007KT 04/03 A3023 RMK A01 T00350033  RH  098%=      5-min Rain = 0
KMD1 080340Z 03006KT 04/03 A3023 RMK A01 T00350033  RH  098%=      5-min Rain = 0
KMD1 080341Z 04006KT 04/03 A3023 RMK A01 T00350032  RH  098%=      5-min Rain = 0
KMD1 080342Z 04008KT 04/03 A3023 RMK A01 T00350032  RH  098%=      5-min Rain = 0
KMD1 080343Z 04007KT 04/03 A3023 RMK A01 T00350032  RH  098%=      5-min Rain = 0
KMD1 080344Z 04005KT 04/03 A3023 RMK A01 T00350032  RH  098%=      5-min Rain = 0
KMD1 080345Z 03007KT 04/03 A3023 RMK A01 T00350032  RH  098%=      5-min Rain = 0
KMD1 080346Z 04005KT 04/03 A3023 RMK A01 T00350033  RH  098%=      5-min Rain = 0
KMD1 080347Z 03005KT 04/03 A3023 RMK A01 T00350032  RH  098%=      5-min Rain = 0
KMD1 080348Z 03005KT 04/03 A3023 RMK A01 T00350033  RH  098%=      5-min Rain = 0
KMD1 080349Z 02004KT 04/03 A3024 RMK A01 T00350033  RH  098%=      5-min Rain = 0
KMD1 080350Z 00004KT 04/03 A3024 RMK A01 T00350033  RH  098%=      5-min Rain = 0
KMD1 080351Z 00004KT 04/03 A3024 RMK A01 T00360033  RH  098%=      5-min Rain = 0
KMD1 080352Z 01004KT 04/03 A3024 RMK A01 T00360033  RH  098%=      5-min Rain = 0
KMD1 080353Z 35005KT 04/03 A3024 RMK A01 T00360033  RH  098%=      5-min Rain = 0
KMD1 080354Z 01004KT 04/03 A3024 RMK A01 T00360033  RH  098%=      5-min Rain = 0.01
KMD1 080355Z 00004KT 04/03 A3024 RMK A01 T00360033  RH  098%=      5-min Rain = 0
KMD1 080356Z 35004KT 04/03 A3024 RMK A01 T00360033  RH  098%=      5-min Rain = 0
KMD1 080357Z 00004KT 04/03 A3024 RMK A01 T00360033  RH  098%=      5-min Rain = 0
KMD1 080358Z 01004KT 04/03 A3024 RMK A01 T00360033  RH  098%=      5-min Rain = 0
KMD1 080359Z 02004KT 04/03 A3024 RMK A01 T00360033  RH  098%=      5-min Rain = 0
KMD1 080400Z 01004KT 04/03 A3024 RMK A01 T00360033  RH  098%=      5-min Rain = 0
KMD1 080401Z 00003KT 04/03 A3024 RMK A01 T00350033  RH  098%=      5-min Rain = 0
KMD1 080402Z 00003KT 04/03 A3024 RMK A01 T00360033  RH  098%=      5-min Rain = 0
KMD1 080403Z 36005KT 04/03 A3024 RMK A01 T00360034  RH  098%=      5-min Rain = 0
KMD1 080404Z 01005KT 04/03 A3024 RMK A01 T00360033  RH  098%=      5-min Rain = 0
KMD1 080405Z 00005KT 04/03 A3024 RMK A01 T00360033  RH  098%=      5-min Rain = 0
KMD1 080406Z 01003KT 04/03 A3024 RMK A01 T00360033  RH  098%=      5-min Rain = 0
KMD1 080407Z 36003KT 04/03 A3024 RMK A01 T00360033  RH  098%=      5-min Rain = 0
KMD1 080408Z 36003KT 04/03 A3024 RMK A01 T00360033  RH  098%=      5-min Rain = 0
KMD1 080409Z 36004KT 04/03 A3024 RMK A01 T00360034  RH  098%=      5-min Rain = 0
KMD1 080410Z 36005KT 04/03 A3024 RMK A01 T00360034  RH  098%=      5-min Rain = 0
KMD1 080411Z 01005KT 04/03 A3024 RMK A01 T00360033  RH  098%=      5-min Rain = 0
KMD1 080412Z 02005KT 04/03 A3023 RMK A01 T00360034  RH  098%=      5-min Rain = 0
KMD1 080413Z 02006KT 04/03 A3023 RMK A01 T00360033  RH  098%=      5-min Rain = 0
KMD1 080414Z 03006KT 04/03 A3022 RMK A01 T00360033  RH  098%=      5-min Rain = 0.01
KMD1 080415Z 04006KT 04/03 A3022 RMK A01 T00350033  RH  098%=      5-min Rain = 0
KMD1 080416Z 03007KT 04/03 A3022 RMK A01 T00350032  RH  098%=      5-min Rain = 0
KMD1 080417Z 03008KT 04/03 A3022 RMK A01 T00350033  RH  098%=      5-min Rain = 0
KMD1 080418Z 03006KT 04/03 A3023 RMK A01 T00350032  RH  098%=      5-min Rain = 0
KMD1 080419Z 02005KT 04/03 A3023 RMK A01 T00350032  RH  098%=      5-min Rain = 0
KMD1 080420Z 02005KT 04/03 A3024 RMK A01 T00350032  RH  098%=      5-min Rain = 0
KMD1 080421Z 02005KT 04/03 A3024 RMK A01 T00350032  RH  098%=      5-min Rain = 0
KMD1 080422Z 02008KT 04/03 A3023 RMK A01 T00350032  RH  098%=      5-min Rain = 0
KMD1 080423Z 02007KT 04/03 A3023 RMK A01 T00350032  RH  098%=      5-min Rain = 0
KMD1 080424Z 03007KT 04/03 A3023 RMK A01 T00350032  RH  098%=      5-min Rain = 0
KMD1 080425Z 03008KT 04/03 A3022 RMK A01 T00350032  RH  098%=      5-min Rain = 0
KMD1 080426Z 03008KT 04/03 A3022 RMK A01 T00350032  RH  098%=      5-min Rain = 0
KMD1 080427Z 02008KT 04/03 A3022 RMK A01 T00350032  RH  098%=      5-min Rain = 0
KMD1 080428Z 03009KT 04/03 A3021 RMK A01 T00350032  RH  098%=      5-min Rain = 0
KMD1 080429Z 03010KT 04/03 A3021 RMK A01 T00350032  RH  098%=      5-min Rain = 0
KMD1 080430Z 03008KT 04/03 A3021 RMK A01 T00350032  RH  098%=      5-min Rain = 0
KMD1 080431Z 03008KT 04/03 A302 RMK A01 T00350032  RH  098%=      5-min Rain = 0
KMD1 080432Z 04009KT 04/03 A302 RMK A01 T00350033  RH  098%=      5-min Rain = 0
KMD1 080433Z 04010KT 04/03 A302 RMK A01 T00350033  RH  098%=      5-min Rain = 0
KMD1 080434Z 04011KT 04/03 A3019 RMK A01 T00350032  RH  098%=      5-min Rain = 0
KMD1 080435Z 04010KT 04/03 A3019 RMK A01 T00350032  RH  098%=      5-min Rain = 0
KMD1 080436Z 04011KT 04/03 A3019 RMK A01 T00350032  RH  098%=      5-min Rain = 0
KMD1 080437Z 04011KT 04/03 A3019 RMK A01 T00350032  RH  098%=      5-min Rain = 0
KMD1 080438Z 05009KT 03/03 A3019 RMK A01 T00340031  RH  098%=      5-min Rain = 0
KMD1 080439Z 04010KT 03/03 A3018 RMK A01 T00340032  RH  098%=      5-min Rain = 0
KMD1 080440Z 04009KT 03/03 A3018 RMK A01 T00340031  RH  098%=      5-min Rain = 0
KMD1 080441Z 04009KT 03/03 A3018 RMK A01 T00340031  RH  098%=      5-min Rain = 0
KMD1 080442Z 03010KT 04/03 A3017 RMK A01 T00350032  RH  098%=      5-min Rain = 0
KMD1 080443Z 04008KT 04/03 A3017 RMK A01 T00350032  RH  098%=      5-min Rain = 0
KMD1 080444Z 04011KT 04/03 A3017 RMK A01 T00350032  RH  098%=      5-min Rain = 0
KMD1 080445Z 03010KT 03/03 A3017 RMK A01 T00340031  RH  098%=      5-min Rain = 0
KMD1 080446Z 03012KT 03/03 A3017 RMK A01 T00340031  RH  098%=      5-min Rain = 0
KMD1 080447Z 03011KT 03/03 A3017 RMK A01 T00340031  RH  098%=      5-min Rain = 0
KMD1 080448Z 03009KT 03/03 A3017 RMK A01 T00340031  RH  098%=      5-min Rain = 0
KMD1 080449Z 02010KT 03/03 A3017 RMK A01 T00340031  RH  098%=      5-min Rain = 0
KMD1 080450Z 03010KT 03/03 A3017 RMK A01 T00340031  RH  098%=      5-min Rain = 0
KMD1 080451Z 03011KT 03/03 A3017 RMK A01 T00340031  RH  098%=      5-min Rain = 0
KMD1 080452Z 03010KT 03/03 A3016 RMK A01 T00340031  RH  098%=      5-min Rain = 0
KMD1 080453Z 04011KT 03/03 A3016 RMK A01 T00340031  RH  098%=      5-min Rain = 0
KMD1 080454Z 03012KT 03/03 A3016 RMK A01 T00340031  RH  098%=      5-min Rain = 0
KMD1 080455Z 04009KT 03/03 A3015 RMK A01 T00330030  RH  098%=      5-min Rain = 0
KMD1 080456Z 04010KT 03/03 A3015 RMK A01 T00330030  RH  098%=      5-min Rain = 0
KMD1 080457Z 05012KT 03/03 A3015 RMK A01 T00330030  RH  098%=      5-min Rain = 0
KMD1 080458Z 04010KT 03/03 A3016 RMK A01 T00330030  RH  098%=      5-min Rain = 0.01
KMD1 080459Z 05009KT 03/03 A3016 RMK A01 T00320029  RH  098%=      5-min Rain = 0
KMD1 080500Z 03010KT 03/03 A3016 RMK A01 T00320029  RH  098%=      5-min Rain = 0
KMD1 080501Z 03009KT 03/03 A3017 RMK A01 T00320029  RH  098%=      5-min Rain = 0
KMD1 080502Z 03007KT 03/03 A3017 RMK A01 T00320029  RH  098%=      5-min Rain = 0
KMD1 080503Z 02008KT 03/03 A3017 RMK A01 T00320029  RH  098%=      5-min Rain = 0
KMD1 080504Z 03010KT 03/03 A3017 RMK A01 T00330029  RH  098%=      5-min Rain = 0
KMD1 080505Z 04010KT 03/03 A3016 RMK A01 T00320029  RH  098%=      5-min Rain = 0
KMD1 080506Z 05009KT 03/03 A3016 RMK A01 T00320029  RH  098%=      5-min Rain = 0
KMD1 080507Z 04009KT 03/03 A3016 RMK A01 T00320029  RH  098%=      5-min Rain = 0
KMD1 080508Z 04009KT 03/03 A3016 RMK A01 T00330029  RH  098%=      5-min Rain = 0
KMD1 080509Z 02009KT 03/03 A3017 RMK A01 T00320029  RH  098%=      5-min Rain = 0
KMD1 080510Z 02007KT 03/03 A3018 RMK A01 T00320029  RH  098%=      5-min Rain = 0
KMD1 080511Z 02008KT 03/03 A3019 RMK A01 T00320029  RH  098%=      5-min Rain = 0
KMD1 080512Z 02009KT 03/03 A3019 RMK A01 T00330029  RH  098%=      5-min Rain = 0
KMD1 080513Z 01008KT 03/03 A302 RMK A01 T00330029  RH  097%=      5-min Rain = 0
KMD1 080514Z 01007KT 03/03 A302 RMK A01 T00330029  RH  097%=      5-min Rain = 0
KMD1 080515Z 01008KT 03/03 A302 RMK A01 T00330029  RH  097%=      5-min Rain = 0
KMD1 080516Z 00009KT 03/03 A302 RMK A01 T00330029  RH  097%=      5-min Rain = 0
KMD1 080517Z 01007KT 03/03 A302 RMK A01 T00330029  RH  097%=      5-min Rain = 0
KMD1 080518Z 02008KT 03/03 A3019 RMK A01 T00330029  RH  097%=      5-min Rain = 0
KMD1 080519Z 02008KT 03/03 A3019 RMK A01 T00330029  RH  097%=      5-min Rain = 0
KMD1 080520Z 03010KT 03/03 A3018 RMK A01 T00330029  RH  097%=      5-min Rain = 0
KMD1 080521Z 03009KT 03/03 A3018 RMK A01 T00330029  RH  097%=      5-min Rain = 0
KMD1 080522Z 02008KT 03/03 A3018 RMK A01 T00330029  RH  097%=      5-min Rain = 0
KMD1 080523Z 03008KT 03/03 A3018 RMK A01 T00330029  RH  097%=      5-min Rain = 0
KMD1 080524Z 02008KT 03/03 A3019 RMK A01 T00330029  RH  097%=      5-min Rain = 0
KMD1 080525Z 01007KT 03/03 A302 RMK A01 T00330029  RH  097%=      5-min Rain = 0
KMD1 080526Z 03005KT 03/03 A302 RMK A01 T00340030  RH  097%=      5-min Rain = 0
KMD1 080527Z 03005KT 03/03 A302 RMK A01 T00330029  RH  097%=      5-min Rain = 0
KMD1 080528Z 03005KT 03/03 A302 RMK A01 T00330029  RH  097%=      5-min Rain = 0
KMD1 080529Z 04008KT 03/03 A302 RMK A01 T00330029  RH  097%=      5-min Rain = 0
KMD1 080530Z 04008KT 03/03 A302 RMK A01 T00330029  RH  097%=      5-min Rain = 0
KMD1 080531Z 03007KT 03/03 A302 RMK A01 T00330029  RH  097%=      5-min Rain = 0
KMD1 080532Z 04006KT 03/03 A302 RMK A01 T00330029  RH  097%=      5-min Rain = 0
KMD1 080533Z 03005KT 03/03 A302 RMK A01 T00330029  RH  097%=      5-min Rain = 0
KMD1 080534Z 03005KT 03/03 A302 RMK A01 T00340029  RH  097%=      5-min Rain = 0
KMD1 080535Z 02005KT 03/03 A302 RMK A01 T00340029  RH  097%=      5-min Rain = 0
KMD1 080536Z 01007KT 03/03 A302 RMK A01 T00340029  RH  097%=      5-min Rain = 0
KMD1 080537Z 01008KT 03/03 A302 RMK A01 T00340029  RH  097%=      5-min Rain = 0
KMD1 080538Z 01008KT 03/03 A302 RMK A01 T00340029  RH  097%=      5-min Rain = 0
KMD1 080539Z 02007KT 03/03 A3019 RMK A01 T00340029  RH  097%=      5-min Rain = 0
KMD1 080540Z 01008KT 03/03 A3019 RMK A01 T00340029  RH  097%=      5-min Rain = 0
KMD1 080541Z 02007KT 03/03 A3019 RMK A01 T00330029  RH  097%=      5-min Rain = 0
KMD1 080542Z 01007KT 03/03 A3019 RMK A01 T00330028  RH  097%=      5-min Rain = 0
KMD1 080543Z 01007KT 03/03 A3019 RMK A01 T00330028  RH  097%=      5-min Rain = 0
KMD1 080544Z 01007KT 03/03 A302 RMK A01 T00330028  RH  097%=      5-min Rain = 0
KMD1 080545Z 00007KT 03/03 A3021 RMK A01 T00330028  RH  097%=      5-min Rain = 0
KMD1 080546Z 02006KT 03/03 A3021 RMK A01 T00330028  RH  097%=      5-min Rain = 0
KMD1 080547Z 01006KT 03/03 A3021 RMK A01 T00330028  RH  097%=      5-min Rain = 0
KMD1 080548Z 01005KT 03/03 A3021 RMK A01 T00330028  RH  097%=      5-min Rain = 0
KMD1 080549Z 01005KT 03/03 A3021 RMK A01 T00330028  RH  097%=      5-min Rain = 0
KMD1 080550Z 01007KT 03/03 A3021 RMK A01 T00330028  RH  097%=      5-min Rain = 0
KMD1 080551Z 01006KT 03/03 A3021 RMK A01 T00330028  RH  097%=      5-min Rain = 0
KMD1 080552Z 36006KT 03/03 A3021 RMK A01 T00330028  RH  097%=      5-min Rain = 0
KMD1 080553Z 35008KT 03/03 A3021 RMK A01 T00330028  RH  097%=      5-min Rain = 0
KMD1 080554Z 36007KT 03/03 A3021 RMK A01 T00330028  RH  097%=      5-min Rain = 0
KMD1 080555Z 35007KT 03/03 A3021 RMK A01 T00330029  RH  097%=      5-min Rain = 0
KMD1 080556Z 01006KT 03/03 A3021 RMK A01 T00340029  RH  097%=      5-min Rain = 0
KMD1 080557Z 36006KT 03/03 A302 RMK A01 T00330028  RH  097%=      5-min Rain = 0
KMD1 080558Z 01006KT 03/03 A302 RMK A01 T00330029  RH  097%=      5-min Rain = 0
KMD1 080559Z 00006KT 03/03 A302 RMK A01 T00330029  RH  097%=      5-min Rain = 0

Page generated in 0.1401 seconds.